KC5DAQ-22 Weather Reports


time (UTC)temp
F
wind
direction
speed
knots
gust
knots
rain 1hr
in
rain 24hr
in
rain mn
in
humidity
%
barometer
mb
20260510214901 88 117 12.2 16.5 0.00 0.00 0.00 66 1011.0
20260510214802 88 124 11.3 16.5 0.00 0.00 0.00 66 1011.1
20260510214704 88 124 9.6 14.8 0.00 0.00 0.00 67 1011.0
20260510214602 88 90 8.7 13.9 0.00 0.00 0.00 66 1011.1
20260510214501 88 109 8.7 13.0 0.00 0.00 0.00 66 1011.0
20260510214403 88 120 7.8 13.0 0.00 0.00 0.00 66 1011.1
20260510214302 88 124 7.8 13.0 0.00 0.00 0.00 66 1011.1
20260510214203 88 86 7.8 13.0 0.00 0.00 0.00 66 1011.0
20260510214104 88 85 8.7 13.0 0.00 0.00 0.00 66 1011.1
20260510214003 88 102 9.6 13.0 0.00 0.00 0.00 66 1011.1
20260510213902 88 107 7.8 13.9 0.00 0.00 0.00 66 1011.0
20260510213802 88 109 6.1 13.9 0.00 0.00 0.00 67 1011.1
20260510213701 88 109 7.0 13.9 0.00 0.00 0.00 67 1011.1
20260510213603 88 141 8.7 13.9 0.00 0.00 0.00 66 1011.1
20260510213502 89 107 7.0 13.9 0.00 0.00 0.00 66 1011.0
20260510213403 89 104 5.2 13.9 0.00 0.00 0.00 66 1011.1
20260510213302 88 142 4.3 13.9 0.00 0.00 0.00 67 1011.0
20260510213202 88 130 7.8 13.9 0.00 0.00 0.00 67 1011.1
20260510213101 88 110 10.4 13.9 0.00 0.00 0.00 66 1011.1
20260510213004 88 114 10.4 13.9 0.00 0.00 0.00 66 1011.1
20260510212901 88 114 9.6 13.9 0.00 0.00 0.00 66 1011.2
20260510212801 88 117 9.6 13.9 0.00 0.00 0.00 66 1011.1
20260510212703 88 117 9.6 13.9 0.00 0.00 0.00 66 1011.1
20260510212603 88 97 8.7 13.9 0.00 0.00 0.00 67 1011.1
20260510212502 88 120 7.8 13.9 0.00 0.00 0.00 66 1011.1
20260510212404 88 106 7.8 13.9 0.00 0.00 0.00 66 1011.1
20260510212306 88 134 7.0 13.9 0.00 0.00 0.00 67 1011.1
20260510212201 89 85 7.8 13.9 0.00 0.00 0.00 66 1011.1
20260510212100 88 87 10.4 13.9 0.00 0.00 0.00 67 1011.1
20260510211959 88 89 9.6 13.9 0.00 0.00 0.00 67 1011.1
20260510211859 88 102 7.8 13.9 0.00 0.00 0.00 67 1011.1
20260510211758 88 103 7.8 13.9 0.00 0.00 0.00 66 1011.1
20260510211658 88 111 8.7 13.9 0.00 0.00 0.00 66 1011.0
20260510211600 89 111 9.6 13.9 0.00 0.00 0.00 66 1011.1
20260510211459 89 93 9.6 13.9 0.00 0.00 0.00 66 1011.2
20260510211359 89 121 9.6 13.9 0.00 0.00 0.00 66 1011.1
20260510211258 89 100 7.8 13.0 0.00 0.00 0.00 66 1011.1
20260510211158 89 116 7.8 14.8 0.00 0.00 0.00 66 1011.1
20260510211059 89 117 7.8 14.8 0.00 0.00 0.00 66 1011.1
20260510210959 89 111 7.8 14.8 0.00 0.00 0.00 67 1011.1
20260510210858 89 83 6.1 14.8 0.00 0.00 0.00 67 1011.1
20260510210758 88 90 5.2 14.8 0.00 0.00 0.00 67 1011.1
20260510210700 89 127 7.0 14.8 0.00 0.00 0.00 66 1011.1
20260510210558 89 111 7.0 14.8 0.00 0.00 0.00 65 1011.2
20260510210458 89 114 7.8 14.8 0.00 0.00 0.00 66 1011.2
20260510210359 89 124 9.6 14.8 0.00 0.00 0.00 65 1011.1
20260510210259 89 117 10.4 14.8 0.00 0.00 0.00 66 1011.1
20260510210159 89 118 10.4 14.8 0.00 0.00 0.00 66 1011.1
20260510210059 89 127 7.8 14.8 0.00 0.00 0.00 67 1011.2
20260510210000 89 135 6.1 14.8 0.00 0.00 0.00 66 1011.1
20260510205858 89 83 7.8 14.8 0.00 0.00 0.00 66 1011.1
20260510205758 89 89 9.6 14.8 0.00 0.00 0.00 66 1011.1
20260510205657 89 83 9.6 14.8 0.00 0.00 0.00 66 1011.0
20260510205554 89 75 10.4 14.8 0.00 0.00 0.00 66 1011.1
20260510205452 89 82 11.3 14.8 0.00 0.00 0.00 66 1011.1
20260510205350 90 114 9.6 13.9 0.00 0.00 0.00 66 1011.1
20260510205249 90 116 9.6 13.9 0.00 0.00 0.00 66 1011.1
20260510205148 90 130 9.6 13.9 0.00 0.00 0.00 66 1011.1
20260510205047 90 100 7.8 13.9 0.00 0.00 0.00 66 1011.1
20260510204946 90 106 6.1 13.9 0.00 0.00 0.00 66 1011.1
20260510204845 91 87 3.5 13.9 0.00 0.00 0.00 66 1011.0
20260510204742 90 75 3.5 13.9 0.00 0.00 0.00 66 1011.0
20260510204641 90 141 7.0 13.9 0.00 0.00 0.00 66 1011.1
20260510204539 90 102 7.8 13.9 0.00 0.00 0.00 67 1011.0
20260510204437 90 80 6.1 13.9 0.00 0.00 0.00 66 1011.0
20260510204337 90 93 5.2 12.2 0.00 0.00 0.00 66 1011.0
20260510204236 90 97 4.3 12.2 0.00 0.00 0.00 67 1011.0
20260510204136 89 193 5.2 12.2 0.00 0.00 0.00 67 1011.0
20260510204035 89 125 6.1 12.2 0.00 0.00 0.00 67 1011.0
20260510203934 89 300 5.2 12.2 0.00 0.00 0.00 68 1011.0
20260510203833 89 76 7.8 12.2 0.00 0.00 0.00 68 1010.9
20260510203731 89 116 9.6 12.2 0.00 0.00 0.00 68 1010.9
20260510203631 89 134 7.8 12.2 0.00 0.00 0.00 68 1011.0
20260510203534 88 104 7.0 11.3 0.00 0.00 0.00 70 1010.9
20260510203432 88 114 8.7 13.0 0.00 0.00 0.00 69 1011.0
20260510203331 88 96 7.0 13.0 0.00 0.00 0.00 69 1011.0
20260510203231 87 93 5.2 13.0 0.00 0.00 0.00 69 1010.9
20260510203133 88 117 6.1 13.0 0.00 0.00 0.00 68 1010.9
20260510203031 88 93 7.8 13.0 0.00 0.00 0.00 68 1011.0
20260510202931 88 107 7.8 13.0 0.00 0.00 0.00 68 1011.0
20260510202832 88 94 7.8 13.0 0.00 0.00 0.00 67 1010.9
20260510202731 88 109 8.7 13.0 0.00 0.00 0.00 67 1010.9
20260510202631 89 117 7.8 13.0 0.00 0.00 0.00 67 1010.9
20260510202531 89 124 7.8 13.0 0.00 0.00 0.00 67 1010.9
20260510202432 89 96 6.1 13.0 0.00 0.00 0.00 67 1010.8
20260510202331 89 94 5.2 10.4 0.00 0.00 0.00 67 1010.8
20260510202231 89 133 4.3 10.4 0.00 0.00 0.00 67 1010.8
20260510202132 89 106 3.5 10.4 0.00 0.00 0.00 67 1010.8
20260510202032 88 79 4.3 10.4 0.00 0.00 0.00 67 1010.8
20260510201930 88 131 4.3 11.3 0.00 0.00 0.00 66 1010.8
20260510201827 88 109 5.2 11.3 0.00 0.00 0.00 66 1010.8
20260510201727 89 97 6.1 11.3 0.00 0.00 0.00 65 1010.8
20260510201626 89 103 7.0 11.3 0.00 0.00 0.00 65 1010.9
20260510201523 89 78 7.8 11.3 0.00 0.00 0.00 64 1010.8
20260510201423 90 121 7.8 11.3 0.00 0.00 0.00 64 1010.8
20260510201320 90 114 7.8 11.3 0.00 0.00 0.00 64 1010.7
20260510201218 90 130 7.8 11.3 0.00 0.00 0.00 64 1010.7
20260510201117 90 113 7.8 11.3 0.00 0.00 0.00 64 1010.7
20260510201017 90 107 6.1 11.3 0.00 0.00 0.00 64 1010.8
20260510200914 90 106 3.5 11.3 0.00 0.00 0.00 63 1010.7
20260510200813 90 117 4.3 11.3 0.00 0.00 0.00 63 1010.6
20260510200711 90 123 4.3 11.3 0.00 0.00 0.00 63 1010.6
20260510200611 90 117 3.5 11.3 0.00 0.00 0.00 63 1010.6
20260510200508 90 104 2.6 11.3 0.00 0.00 0.00 64 1010.7
20260510200407 90 117 2.6 11.3 0.00 0.00 0.00 64 1010.6
20260510200306 90 159 3.5 11.3 0.00 0.00 0.00 63 1010.6
20260510200203 90 159 5.2 11.3 0.00 0.00 0.00 63 1010.6
20260510200003 91 110 6.1 11.3 0.00 0.00 0.00 63 1010.7
20260510195902 90 110 5.2 12.2 0.00 0.00 0.00 63 1010.7
20260510195800 91 120 4.3 12.2 0.00 0.00 0.00 64 1010.7
20260510195657 90 127 5.2 12.2 0.00 0.00 0.00 64 1010.7
20260510195556 90 97 6.1 12.2 0.00 0.00 0.00 63 1010.6
20260510195459 90 114 5.2 12.2 0.00 0.00 0.00 63 1010.6
20260510195358 90 100 3.5 12.2 0.00 0.00 0.00 63 1010.7
20260510195256 90 103 3.5 12.2 0.00 0.00 0.00 62 1010.7
20260510195156 91 118 5.2 12.2 0.00 0.00 0.00 61 1010.7
20260510195057 91 100 7.8 12.2 0.00 0.00 0.00 60 1010.7
20260510194956 91 114 8.7 12.2 0.00 0.00 0.00 59 1010.7
20260510194857 92 127 7.8 11.3 0.00 0.00 0.00 59 1010.7
20260510194757 92 127 6.1 11.3 0.00 0.00 0.00 60 1010.6
20260510194657 92 102 3.5 10.4 0.00 0.00 0.00 60 1010.7
20260510194556 92 162 2.6 10.4 0.00 0.00 0.00 61 1010.6
20260510194456 92 114 3.5 10.4 0.00 0.00 0.00 61 1010.6
20260510194357 92 224 2.6 10.4 0.00 0.00 0.00 62 1010.6
20260510194343 92 114 6.1 11.3 0.00 0.00 0.00 61 1010.6
20260510194320 91 117 2.6 10.4 0.00 0.00 0.00 61 1010.6
20260510194253 91 85 4.3 11.3 0.00 0.00 0.00 60 1010.6
20260510194228 91 94 5.2 11.3 0.00 0.00 0.00 60 1010.6
20260510193856 92 123 4.3 11.3 0.00 0.00 0.00 63 1010.6
20260510193757 91 68 4.3 11.3 0.00 0.00 0.00 62 1010.6
20260510193657 91 102 6.1 11.3 0.00 0.00 0.00 64 1010.6
20260510193557 90 185 4.3 12.2 0.00 0.00 0.00 63 1010.6
20260510193457 90 161 3.5 12.2 0.00 0.00 0.00 63 1010.5
20260510193357 90 100 5.2 12.2 0.00 0.00 0.00 63 1010.6
20260510193256 90 121 5.2 12.2 0.00 0.00 0.00 65 1010.6
20260510193156 90 117 5.2 12.2 0.00 0.00 0.00 65 1010.6
20260510193056 89 175 7.0 12.2 0.00 0.00 0.00 64 1010.5
20260510192959 90 104 7.8 12.2 0.00 0.00 0.00 65 1010.5
20260510192856 90 116 6.1 12.2 0.00 0.00 0.00 64 1010.6
20260510192756 90 49 7.0 12.2 0.00 0.00 0.00 65 1010.6
20260510192656 90 100 7.8 12.2 0.00 0.00 0.00 65 1010.6
20260510192557 89 111 7.0 11.3 0.00 0.00 0.00 66 1010.6
20260510192456 89 130 7.8 13.0 0.00 0.00 0.00 66 1010.6
20260510192356 89 125 7.0 13.0 0.00 0.00 0.00 67 1010.6
20260510192257 89 86 4.3 13.0 0.00 0.00 0.00 66 1010.6
20260510192157 89 120 4.3 13.0 0.00 0.00 0.00 65 1010.6
20260510192056 89 110 4.3 13.0 0.00 0.00 0.00 65 1010.6
20260510191957 89 158 5.2 13.0 0.00 0.00 0.00 65 1010.6
20260510191857 89 154 4.3 13.0 0.00 0.00 0.00 65 1010.5
20260510191756 89 120 5.2 13.0 0.00 0.00 0.00 65 1010.6
20260510191657 90 164 6.1 13.0 0.00 0.00 0.00 65 1010.6
20260510191558 90 107 6.1 13.0 0.00 0.00 0.00 64 1010.5
20260510191456 90 89 5.2 13.0 0.00 0.00 0.00 63 1010.6
20260510191356 91 110 5.2 13.0 0.00 0.00 0.00 63 1010.5
20260510191257 91 164 5.2 13.0 0.00 0.00 0.00 64 1010.5
20260510191156 90 83 5.2 13.0 0.00 0.00 0.00 63 1010.5
20260510191055 91 203 5.2 13.0 0.00 0.00 0.00 63 1010.5
20260510190955 90 202 7.0 13.0 0.00 0.00 0.00 63 1010.6
20260510190857 90 96 5.2 13.0 0.00 0.00 0.00 65 1010.5
20260510190755 90 96 4.3 10.4 0.00 0.00 0.00 66 1010.5
20260510190655 90 54 5.2 10.4 0.00 0.00 0.00 65 1010.6
20260510190557 90 151 6.1 12.2 0.00 0.00 0.00 65 1010.6
20260510190455 90 147 5.2 12.2 0.00 0.00 0.00 64 1010.5
20260510190356 90 94 5.2 12.2 0.00 0.00 0.00 65 1010.7
20260510190255 90 111 5.2 12.2 0.00 0.00 0.00 64 1010.6
20260510190157 90 100 4.3 12.2 0.00 0.00 0.00 64 1010.6
20260510190055 90 183 5.2 12.2 0.00 0.00 0.00 64 1010.8
20260510185955 90 168 5.2 12.2 0.00 0.00 0.00 65 1010.8
20260510185856 89 188 7.0 12.2 0.00 0.00 0.00 65 1010.8
20260510185756 89 109 7.0 12.2 0.00 0.00 0.00 66 1010.8
20260510185655 89 107 6.1 12.2 0.00 0.00 0.00 66 1010.8
20260510185556 89 144 5.2 11.3 0.00 0.00 0.00 66 1010.8
20260510185456 88 142 6.1 11.3 0.00 0.00 0.00 67 1010.8
20260510185355 88 130 4.3 11.3 0.00 0.00 0.00 67 1010.8
20260510185255 88 89 3.5 11.3 0.00 0.00 0.00 67 1010.8
20260510185156 88 144 3.5 11.3 0.00 0.00 0.00 66 1010.8
20260510185055 88 109 3.5 11.3 0.00 0.00 0.00 66 1010.8
20260510184955 88 110 3.5 11.3 0.00 0.00 0.00 66 1010.7
20260510184856 89 157 5.2 11.3 0.00 0.00 0.00 66 1010.8
20260510184756 89 127 7.8 11.3 0.00 0.00 0.00 66 1010.8
20260510184655 89 87 7.8 11.3 0.00 0.00 0.00 65 1010.7
20260510184555 89 103 7.0 11.3 0.00 0.00 0.00 66 1010.8
20260510184456 89 145 5.2 11.3 0.00 0.00 0.00 65 1010.8
20260510184355 89 109 2.6 8.7 0.00 0.00 0.00 64 1010.7
20260510184254 90 224 3.5 8.7 0.00 0.00 0.00 65 1010.8
20260510184156 90 162 3.5 8.7 0.00 0.00 0.00 64 1010.8
20260510184056 90 109 4.3 12.2 0.00 0.00 0.00 64 1010.8
20260510183955 90 171 3.5 12.2 0.00 0.00 0.00 64 1010.8
20260510183855 90 111 4.3 12.2 0.00 0.00 0.00 65 1010.8
20260510183756 90 125 5.2 12.2 0.00 0.00 0.00 64 1010.8
20260510183655 90 99 5.2 12.2 0.00 0.00 0.00 65 1010.8
20260510183554 90 97 6.1 12.2 0.00 0.00 0.00 65 1010.8
20260510183456 90 151 5.2 12.2 0.00 0.00 0.00 65 1010.8
20260510183355 90 104 3.5 12.2 0.00 0.00 0.00 66 1010.8
20260510183254 89 166 6.1 13.0 0.00 0.00 0.00 66 1010.9
20260510183154 89 114 7.8 13.0 0.00 0.00 0.00 65 1010.9
20260510183056 89 92 7.8 13.0 0.00 0.00 0.00 65 1010.8
20260510182955 89 93 6.1 13.0 0.00 0.00 0.00 66 1010.9
20260510182854 89 120 6.1 13.0 0.00 0.00 0.00 66 1010.9
20260510182755 89 141 7.8 13.0 0.00 0.00 0.00 66 1010.9
20260510182656 89 137 8.7 13.0 0.00 0.00 0.00 67 1010.9
20260510182555 89 94 7.0 13.0 0.00 0.00 0.00 66 1010.9
20260510182455 89 110 7.8 13.0 0.00 0.00 0.00 66 1010.9
20260510182355 90 118 7.8 13.0 0.00 0.00 0.00 66 1010.9
20260510182254 90 124 6.1 12.2 0.00 0.00 0.00 66 1011.0
20260510182155 89 42 5.2 12.2 0.00 0.00 0.00 66 1011.0
20260510182055 89 189 3.5 12.2 0.00 0.00 0.00 66 1011.0
20260510181955 89 142 3.5 12.2 0.00 0.00 0.00 66 1011.1
20260510181854 89 94 5.2 12.2 0.00 0.00 0.00 67 1011.0
20260510181754 89 120 7.0 12.2 0.00 0.00 0.00 67 1011.1
20260510181655 89 121 7.8 12.2 0.00 0.00 0.00 67 1011.1
20260510181554 89 87 7.8 12.2 0.00 0.00 0.00 66 1011.2
20260510181454 89 124 8.7 12.2 0.00 0.00 0.00 66 1011.1
20260510181356 89 99 6.1 12.2 0.00 0.00 0.00 66 1011.0
20260510181255 89 93 4.3 12.2 0.00 0.00 0.00 66 1011.1
20260510181155 89 109 4.3 12.2 0.00 0.00 0.00 66 1011.1
20260510181055 89 142 4.3 12.2 0.00 0.00 0.00 65 1011.2
20260510180956 89 90 5.2 12.2 0.00 0.00 0.00 66 1011.2
20260510180854 89 109 6.1 12.2 0.00 0.00 0.00 65 1011.2
20260510180754 90 96 7.8 12.2 0.00 0.00 0.00 65 1011.3
20260510180655 90 106 6.1 12.2 0.00 0.00 0.00 66 1011.3
20260510180555 89 97 3.5 11.3 0.00 0.00 0.00 67 1011.3
20260510180454 89 179 3.5 11.3 0.00 0.00 0.00 68 1011.3
20260510180355 88 94 3.5 12.2 0.00 0.00 0.00 67 1011.3
20260510180254 88 109 7.0 12.2 0.00 0.00 0.00 66 1011.3
20260510180154 88 102 8.7 12.2 0.00 0.00 0.00 67 1011.4
20260510180055 88 86 7.8 13.0 0.00 0.00 0.00 66 1011.3
20260510175955 89 106 7.0 13.0 0.00 0.00 0.00 66 1011.4
20260510175854 89 113 7.8 13.0 0.00 0.00 0.00 68 1011.4
20260510175755 89 103 7.0 13.0 0.00 0.00 0.00 68 1011.4
20260510175654 88 93 6.1 13.0 0.00 0.00 0.00 68 1011.3
20260510175554 88 96 7.8 13.0 0.00 0.00 0.00 68 1011.3
20260510175454 88 121 7.8 13.0 0.00 0.00 0.00 68 1011.3
20260510175354 88 99 7.0 13.0 0.00 0.00 0.00 68 1011.4
20260510175254 88 109 9.6 13.0 0.00 0.00 0.00 67 1011.5
20260510175155 88 80 10.4 13.0 0.00 0.00 0.00 67 1011.4
20260510175054 88 109 7.8 12.2 0.00 0.00 0.00 67 1011.4
20260510174955 88 87 5.2 11.3 0.00 0.00 0.00 67 1011.4
20260510174854 88 110 4.3 11.3 0.00 0.00 0.00 68 1011.4
20260510174754 88 97 6.1 11.3 0.00 0.00 0.00 65 1011.4
20260510174654 88 96 7.8 11.3 0.00 0.00 0.00 66 1011.4
20260510174551 89 114 7.8 11.3 0.00 0.00 0.00 66 1011.4
20260510174451 89 111 8.7 11.3 0.00 0.00 0.00 66 1011.4
20260510174352 89 110 7.0 11.3 0.00 0.00 0.00 66 1011.4
20260510174249 89 114 5.2 11.3 0.00 0.00 0.00 67 1011.3
20260510174148 89 83 4.3 11.3 0.00 0.00 0.00 68 1011.3
20260510174048 88 79 3.5 11.3 0.00 0.00 0.00 69 1011.4
20260510173946 88 103 2.6 12.2 0.00 0.00 0.00 69 1011.4
20260510173844 88 124 3.5 12.2 0.00 0.00 0.00 69 1011.5
20260510173743 87 82 5.2 12.2 0.00 0.00 0.00 70 1011.4
20260510173641 88 93 7.0 12.2 0.00 0.00 0.00 69 1011.4
20260510173540 88 97 7.0 12.2 0.00 0.00 0.00 69 1011.5
20260510173439 88 117 7.0 12.2 0.00 0.00 0.00 68 1011.5
20260510173338 88 118 6.1 12.2 0.00 0.00 0.00 68 1011.4
20260510173234 87 116 6.1 12.2 0.00 0.00 0.00 68 1011.5
20260510173133 88 87 7.0 12.2 0.00 0.00 0.00 68 1011.5
20260510173033 88 107 8.7 12.2 0.00 0.00 0.00 70 1011.5
20260510172932 88 100 7.0 12.2 0.00 0.00 0.00 70 1011.5
20260510172832 87 121 5.2 11.3 0.00 0.00 0.00 71 1011.4
20260510172732 87 100 5.2 11.3 0.00 0.00 0.00 70 1011.5
20260510172631 87 82 5.2 11.3 0.00 0.00 0.00 69 1011.5
20260510172532 88 86 7.0 11.3 0.00 0.00 0.00 70 1011.5
20260510172431 88 113 6.1 11.3 0.00 0.00 0.00 70 1011.6
20260510172332 88 103 5.2 11.3 0.00 0.00 0.00 71 1011.6
20260510172231 88 99 3.5 11.3 0.00 0.00 0.00 72 1011.6
20260510172131 87 72 3.5 11.3 0.00 0.00 0.00 71 1011.7
20260510172032 87 179 5.2 11.3 0.00 0.00 0.00 72 1011.7
20260510171932 87 103 7.0 11.3 0.00 0.00 0.00 72 1011.7
20260510171831 86 104 7.8 11.3 0.00 0.00 0.00 73 1011.7
20260510171731 86 82 6.1 11.3 0.00 0.00 0.00 73 1011.7
20260510171632 86 66 5.2 11.3 0.00 0.00 0.00 74 1011.8
20260510171531 85 96 7.8 11.3 0.00 0.00 0.00 73 1011.8
20260510171429 85 97 7.8 11.3 0.00 0.00 0.00 73 1011.8
20260510171327 85 99 6.1 8.7 0.00 0.00 0.00 73 1011.8
20260510171226 85 99 5.2 8.7 0.00 0.00 0.00 73 1011.9
20260510171125 85 89 4.3 8.7 0.00 0.00 0.00 73 1011.9
20260510171023 85 76 3.5 8.7 0.00 0.00 0.00 73 1011.9
20260510170921 86 80 3.5 8.7 0.00 0.00 0.00 72 1011.9
20260510170818 86 63 4.3 8.7 0.00 0.00 0.00 72 1011.9
20260510170719 86 83 5.2 8.7 0.00 0.00 0.00 72 1012.0
20260510170616 86 49 4.3 8.7 0.00 0.00 0.00 72 1012.0
20260510170515 86 54 5.2 8.7 0.00 0.00 0.00 72 1012.0
20260510170415 86 34 6.1 8.7 0.00 0.00 0.00 72 1012.1
20260510170312 86 73 4.3 8.7 0.00 0.00 0.00 72 1012.1
20260510170205 86 73 1.7 8.7 0.00 0.00 0.00 72 1012.1
20260510170104 86 42 0.0 8.7 0.00 0.00 0.00 72 1012.1
20260510170003 86 106 0.9 9.6 0.00 0.00 0.00 71 1012.1
20260510165853 86 106 2.6 9.6 0.00 0.00 0.00 71 1012.1
20260510165753 86 110 2.6 9.6 0.00 0.00 0.00 71 1012.1
20260510165653 86 79 3.5 9.6 0.00 0.00 0.00 70 1012.2
20260510165552 87 83 5.2 9.6 0.00 0.00 0.00 71 1012.3
20260510165452 87 92 6.1 9.6 0.00 0.00 0.00 70 1012.3
20260510165353 87 89 6.1 9.6 0.00 0.00 0.00 70 1012.2
20260510165252 87 96 5.2 9.6 0.00 0.00 0.00 70 1012.2
20260510165152 87 89 5.2 9.6 0.00 0.00 0.00 70 1012.3
20260510165052 87 86 6.1 9.6 0.00 0.00 0.00 70 1012.3
20260510164953 87 55 4.3 8.7 0.00 0.00 0.00 71 1012.2
20260510164852 87 62 5.2 8.7 0.00 0.00 0.00 71 1012.2
20260510164752 87 83 5.2 8.7 0.00 0.00 0.00 71 1012.3
20260510164652 87 68 3.5 8.7 0.00 0.00 0.00 70 1012.3
20260510164553 87 28 3.5 8.7 0.00 0.00 0.00 71 1012.3
20260510164454 87 56 3.5 8.7 0.00 0.00 0.00 70 1012.3
20260510164353 87 41 3.5 8.7 0.00 0.00 0.00 70 1012.2
20260510164253 87 21 5.2 8.7 0.00 0.00 0.00 70 1012.3
20260510164152 87 28 6.1 8.7 0.00 0.00 0.00 70 1012.2
20260510164053 87 45 5.2 8.7 0.00 0.00 0.00 70 1012.3
20260510163953 87 68 5.2 8.7 0.00 0.00 0.00 70 1012.3
20260510163852 87 68 5.2 8.7 0.00 0.00 0.00 70 1012.2
20260510163753 87 75 6.1 8.7 0.00 0.00 0.00 71 1012.3
20260510163655 87 78 4.3 8.7 0.00 0.00 0.00 72 1012.3
20260510163552 87 79 1.7 6.1 0.00 0.00 0.00 72 1012.2
20260510163452 86 90 1.7 7.8 0.00 0.00 0.00 72 1012.3
20260510163352 86 90 2.6 7.8 0.00 0.00 0.00 71 1012.3
20260510163253 87 135 3.5 9.6 0.00 0.00 0.00 72 1012.3
20260510163152 86 14 3.5 9.6 0.00 0.00 0.00 73 1012.3
20260510163052 86 97 4.3 9.6 0.00 0.00 0.00 73 1012.2
20260510162954 86 92 4.3 9.6 0.00 0.00 0.00 72 1012.2
20260510162851 86 83 5.2 9.6 0.00 0.00 0.00 72 1012.2
20260510162753 86 55 5.2 9.6 0.00 0.00 0.00 72 1012.2
20260510162653 86 87 5.2 9.6 0.00 0.00 0.00 72 1012.2
20260510162554 86 99 5.2 9.6 0.00 0.00 0.00 72 1012.2
20260510162451 86 71 5.2 9.6 0.00 0.00 0.00 71 1012.3
20260510162354 86 93 6.1 9.6 0.00 0.00 0.00 72 1012.3
20260510162253 86 71 3.5 8.7 0.00 0.00 0.00 72 1012.3
20260510162152 86 55 2.6 8.7 0.00 0.00 0.00 72 1012.3
20260510162051 86 82 3.5 8.7 0.00 0.00 0.00 72 1012.4
20260510161953 86 104 3.5 8.7 0.00 0.00 0.00 73 1012.3
20260510161853 86 96 3.5 8.7 0.00 0.00 0.00 73 1012.5
20260510161752 86 103 3.5 9.6 0.00 0.00 0.00 74 1012.3
20260510161652 85 92 4.3 9.6 0.00 0.00 0.00 73 1012.3
20260510161552 85 100 5.2 9.6 0.00 0.00 0.00 73 1012.4
20260510161452 85 102 5.2 9.6 0.00 0.00 0.00 74 1012.5
20260510161352 85 116 4.3 9.6 0.00 0.00 0.00 73 1012.5
20260510161251 85 80 4.3 9.6 0.00 0.00 0.00 74 1012.5
20260510161153 85 73 3.5 9.6 0.00 0.00 0.00 74 1012.5
20260510161052 85 97 2.6 9.6 0.00 0.00 0.00 74 1012.5
20260510160952 85 94 4.3 9.6 0.00 0.00 0.00 74 1012.5
20260510160852 85 118 5.2 9.6 0.00 0.00 0.00 74 1012.6
20260510160751 85 118 4.3 7.8 0.00 0.00 0.00 73 1012.6
20260510160651 85 96 4.3 7.8 0.00 0.00 0.00 75 1012.6
20260510160551 85 102 3.5 7.8 0.00 0.00 0.00 75 1012.6
20260510160453 85 86 3.5 9.6 0.00 0.00 0.00 74 1012.6
20260510160352 85 59 4.3 9.6 0.00 0.00 0.00 75 1012.6
20260510160251 85 72 1.7 9.6 0.00 0.00 0.00 75 1012.5
20260510160153 85 145 2.6 9.6 0.00 0.00 0.00 76 1012.6
20260510160052 85 125 4.3 9.6 0.00 0.00 0.00 75 1012.6
20260510155953 84 109 3.5 9.6 0.00 0.00 0.00 75 1012.6
20260510155852 84 66 4.3 9.6 0.00 0.00 0.00 75 1012.7
20260510155751 85 62 5.2 9.6 0.00 0.00 0.00 75 1012.7
20260510155651 85 97 6.1 9.6 0.00 0.00 0.00 76 1012.7
20260510155553 84 59 5.2 9.6 0.00 0.00 0.00 77 1012.8
20260510155452 84 118 2.6 6.1 0.00 0.00 0.00 77 1012.7
20260510155351 84 109 3.5 6.1 0.00 0.00 0.00 77 1012.8
20260510155252 84 104 3.5 8.7 0.00 0.00 0.00 77 1012.8
20260510155152 83 104 2.6 8.7 0.00 0.00 0.00 78 1012.8
20260510155052 83 104 1.7 8.7 0.00 0.00 0.00 79 1012.8
20260510154951 83 104 1.7 8.7 0.00 0.00 0.00 79 1012.8
20260510154852 82 97 2.6 8.7 0.00 0.00 0.00 79 1012.7
20260510154753 82 94 2.6 8.7 0.00 0.00 0.00 79 1012.8
20260510154651 82 86 3.5 8.7 0.00 0.00 0.00 79 1012.8
20260510154551 82 85 4.3 8.7 0.00 0.00 0.00 78 1012.8
20260510154453 83 63 5.2 8.7 0.00 0.00 0.00 78 1012.8
20260510154352 83 79 5.2 8.7 0.00 0.00 0.00 78 1012.9
20260510154252 83 110 4.3 8.7 0.00 0.00 0.00 78 1012.8
20260510154152 83 109 5.2 8.7 0.00 0.00 0.00 78 1012.8
20260510154052 83 114 4.3 8.7 0.00 0.00 0.00 78 1012.8
20260510153952 83 103 4.3 6.1 0.00 0.00 0.00 79 1012.8
20260510153850 82 97 3.5 6.1 0.00 0.00 0.00 79 1012.7
20260510153752 82 80 3.5 6.1 0.00 0.00 0.00 79 1012.8
20260510153651 82 92 3.5 8.7 0.00 0.00 0.00 79 1012.7
20260510153551 82 125 3.5 8.7 0.00 0.00 0.00 79 1012.8
20260510153452 82 86 4.3 8.7 0.00 0.00 0.00 78 1012.7
20260510153353 82 94 4.3 8.7 0.00 0.00 0.00 79 1012.7
20260510153251 83 94 2.6 8.7 0.00 0.00 0.00 79 1012.8
20260510153150 83 85 0.9 8.7 0.00 0.00 0.00 79 1012.8
20260510153051 83 54 0.9 8.7 0.00 0.00 0.00 79 1012.8
20260510152950 83 54 2.6 8.7 0.00 0.00 0.00 79 1012.8
20260510152850 83 54 5.2 8.7 0.00 0.00 0.00 79 1012.8
20260510152750 82 55 5.2 8.7 0.00 0.00 0.00 80 1012.8
20260510152652 82 47 4.3 7.8 0.00 0.00 0.00 80 1012.8
20260510152550 82 68 5.2 7.8 0.00 0.00 0.00 80 1012.9
20260510152450 82 73 5.2 7.8 0.00 0.00 0.00 81 1012.9
20260510152352 82 72 3.5 7.8 0.00 0.00 0.00 81 1013.0
20260510152250 82 47 2.6 7.8 0.00 0.00 0.00 82 1012.9
20260510152150 81 102 3.5 9.6 0.00 0.00 0.00 81 1012.9
20260510152051 81 107 3.5 9.6 0.00 0.00 0.00 81 1012.9
20260510151952 81 94 4.3 9.6 0.00 0.00 0.00 80 1012.9
20260510151851 82 102 6.1 9.6 0.00 0.00 0.00 80 1013.0
20260510151750 82 94 6.1 9.6 0.00 0.00 0.00 80 1013.0
20260510151651 82 71 5.2 9.6 0.00 0.00 0.00 80 1012.9
20260510151550 82 94 4.3 9.6 0.00 0.00 0.00 81 1013.0
20260510151450 82 133 4.3 9.6 0.00 0.00 0.00 81 1013.0
20260510151350 82 73 4.3 9.6 0.00 0.00 0.00 82 1013.0
20260510151252 82 82 3.5 9.6 0.00 0.00 0.00 83 1013.0
20260510151151 82 41 3.5 6.1 0.00 0.00 0.00 83 1013.0
20260510151050 81 358 3.5 6.1 0.00 0.00 0.00 83 1012.9
20260510150952 81 21 4.3 6.1 0.00 0.00 0.00 84 1013.0
20260510150852 81 27 4.3 7.8 0.00 0.00 0.00 84 1012.9
20260510150751 81 7 4.3 7.8 0.00 0.00 0.00 84 1013.0
20260510150651 81 0 4.3 7.8 0.00 0.00 0.00 84 1013.0
20260510150550 80 44 4.3 7.8 0.00 0.00 0.00 84 1012.9
20260510150449 80 17 4.3 7.8 0.00 0.00 0.00 84 1012.9
20260510150350 80 7 4.3 7.8 0.00 0.00 0.00 84 1013.0
20260510150252 80 30 4.3 7.8 0.00 0.00 0.00 85 1013.0
20260510150151 80 3 4.3 7.8 0.00 0.00 0.00 85 1013.1
20260510150050 80 32 5.2 7.8 0.00 0.00 0.00 85 1013.0
20260510145952 80 37 4.3 7.8 0.00 0.00 0.00 84 1013.0
20260510145851 80 44 4.3 7.8 0.00 0.00 0.00 85 1012.9
20260510145750 81 30 4.3 7.8 0.00 0.00 0.00 85 1012.9
20260510145650 81 30 4.3 7.8 0.00 0.00 0.00 85 1013.0
20260510145552 81 24 4.3 7.8 0.00 0.00 0.00 85 1012.9
20260510145449 80 38 5.2 8.7 0.00 0.00 0.00 84 1012.9
20260510145350 81 38 5.2 8.7 0.00 0.00 0.00 85 1013.0
20260510145250 81 51 3.5 8.7 0.00 0.00 0.00 85 1013.0
20260510145149 81 44 3.5 8.7 0.00 0.00 0.00 85 1013.0
20260510145049 81 18 2.6 8.7 0.00 0.00 0.00 85 1012.9
20260510144951 80 21 2.6 8.7 0.00 0.00 0.00 86 1013.0
20260510144852 80 80 2.6 8.7 0.00 0.00 0.00 85 1012.9
20260510144749 80 63 2.6 8.7 0.00 0.00 0.00 86 1012.9
20260510144649 80 54 3.5 8.7 0.00 0.00 0.00 85 1013.0
20260510144549 80 32 5.2 8.7 0.00 0.00 0.00 85 1013.0
20260510144449 80 68 5.2 9.6 0.00 0.00 0.00 86 1013.0
20260510144350 80 55 5.2 9.6 0.00 0.00 0.00 86 1012.9
20260510144249 80 16 5.2 9.6 0.00 0.00 0.00 86 1012.9
20260510144150 80 35 4.3 9.6 0.00 0.00 0.00 87 1012.9
20260510144049 80 44 3.5 9.6 0.00 0.00 0.00 87 1012.9
20260510143949 80 0 3.5 9.6 0.00 0.00 0.00 87 1012.9
20260510143851 80 16 4.3 9.6 0.00 0.00 0.00 87 1012.9
20260510143750 79 16 4.3 9.6 0.00 0.00 0.00 87 1012.9
20260510143650 79 0 5.2 9.6 0.00 0.00 0.00 87 1013.0
20260510143549 79 17 4.3 9.6 0.00 0.00 0.00 87 1013.0
20260510143450 79 16 4.3 7.8 0.00 0.00 0.00 88 1012.9
20260510143349 79 27 3.5 7.8 0.00 0.00 0.00 88 1012.9
20260510143249 79 25 3.5 7.8 0.00 0.00 0.00 88 1012.9
20260510143150 79 30 4.3 7.8 0.00 0.00 0.00 88 1012.9
20260510143050 79 30 4.3 7.8 0.00 0.00 0.00 88 1012.9
20260510142949 79 28 4.3 7.8 0.00 0.00 0.00 88 1012.9
20260510142849 79 42 5.2 7.8 0.00 0.00 0.00 88 1012.8
20260510142751 79 45 5.2 7.8 0.00 0.00 0.00 88 1012.9
20260510142650 79 28 5.2 7.8 0.00 0.00 0.00 88 1012.9
20260510142549 79 31 4.3 7.8 0.00 0.00 0.00 88 1013.0
20260510142450 79 7 4.3 7.8 0.00 0.00 0.00 88 1012.9
20260510142349 79 16 4.3 7.8 0.00 0.00 0.00 88 1012.9
20260510142249 79 25 5.2 7.8 0.00 0.00 0.00 88 1012.9
20260510142150 78 10 5.2 7.8 0.00 0.00 0.00 88 1012.9
20260510142049 78 10 5.2 8.7 0.00 0.00 0.00 88 1012.9
20260510141949 79 16 6.1 8.7 0.00 0.00 0.00 88 1012.9
20260510141849 79 23 5.2 9.6 0.00 0.00 0.00 88 1012.9
20260510141750 79 25 4.3 9.6 0.00 0.00 0.00 88 1012.9
20260510141651 79 17 5.2 9.6 0.00 0.00 0.00 89 1012.9
20260510141550 79 17 5.2 9.6 0.00 0.00 0.00 89 1012.9
20260510141450 79 17 5.2 10.4 0.00 0.00 0.00 89 1012.9
20260510141349 79 17 5.2 10.4 0.00 0.00 0.00 89 1012.9
20260510141251 79 17 5.2 10.4 0.00 0.00 0.00 89 1012.9
20260510141148 79 38 5.2 10.4 0.00 0.00 0.00 89 1013.0
20260510141051 79 24 6.1 10.4 0.00 0.00 0.00 89 1013.0
20260510140949 78 27 5.2 10.4 0.00 0.00 0.00 90 1013.0
20260510140849 78 32 4.3 10.4 0.00 0.00 0.00 90 1013.0
20260510140750 78 18 7.0 10.4 0.00 0.00 0.00 90 1012.9
20260510140644 78 20 7.0 10.4 0.00 0.00 0.00 90 1013.0
20260510140542 78 23 6.1 10.4 0.00 0.00 0.00 90 1012.9
20260510140437 78 16 5.2 10.4 0.00 0.00 0.00 90 1012.9
20260510140335 78 11 5.2 10.4 0.00 0.00 0.00 90 1012.9
20260510140234 78 24 5.2 11.3 0.00 0.00 0.00 90 1012.9
20260510140132 78 31 5.2 11.3 0.00 0.00 0.00 91 1013.0
20260510140033 78 3 5.2 11.3 0.00 0.00 0.00 91 1013.0
20260510135932 78 20 5.2 11.3 0.00 0.00 0.00 91 1012.9
20260510135831 78 13 5.2 11.3 0.00 0.00 0.00 90 1012.9
20260510135731 77 0 6.1 11.3 0.00 0.00 0.00 90 1013.0
20260510135632 77 24 6.1 11.3 0.00 0.00 0.00 91 1012.9
20260510135533 77 20 7.8 11.3 0.00 0.00 0.00 90 1012.9
20260510135432 77 11 7.8 11.3 0.00 0.00 0.00 90 1012.9
20260510135332 78 21 7.0 11.3 0.00 0.00 0.00 90 1012.9
20260510135231 78 17 7.0 9.6 0.00 0.00 0.00 90 1012.9
20260510135132 78 28 6.1 9.6 0.00 0.00 0.00 90 1012.9
20260510135031 78 27 5.2 8.7 0.00 0.00 0.00 91 1012.9
20260510134930 78 10 5.2 8.7 0.00 0.00 0.00 91 1012.8
20260510134832 78 31 5.2 8.7 0.00 0.00 0.00 91 1012.9
20260510134731 78 24 5.2 8.7 0.00 0.00 0.00 91 1012.8
20260510134631 78 24 5.2 8.7 0.00 0.00 0.00 91 1012.8
20260510134534 78 14 6.1 8.7 0.00 0.00 0.00 91 1012.8
20260510134431 78 23 6.1 8.7 0.00 0.00 0.00 91 1012.8
20260510134332 78 24 6.1 8.7 0.00 0.00 0.00 91 1012.8
20260510134230 78 25 6.1 8.7 0.00 0.00 0.00 91 1012.8
20260510134128 78 23 5.2 8.7 0.00 0.00 0.00 91 1012.8
20260510134027 78 11 4.3 6.1 0.00 0.00 0.00 91 1012.8
20260510133926 77 1 4.3 6.1 0.00 0.00 0.00 91 1012.7
20260510133823 77 41 4.3 6.1 0.00 0.00 0.00 92 1012.7
20260510133723 77 10 5.2 6.1 0.00 0.00 0.00 92 1012.7
20260510133623 77 25 5.2 6.1 0.00 0.00 0.00 92 1012.6
20260510133519 77 20 3.5 6.1 0.00 0.00 0.00 92 1012.6
20260510133419 77 30 2.6 4.3 0.00 0.00 0.00 93 1012.7
20260510133316 77 10 3.5 4.3 0.00 0.00 0.00 93 1012.6
20260510133215 77 59 3.5 4.3 0.00 0.00 0.00 93 1012.6
20260510133113 77 34 3.5 4.3 0.00 0.00 0.00 93 1012.6
20260510133012 76 25 3.5 4.3 0.00 0.00 0.00 93 1012.5
20260510132911 76 37 2.6 4.3 0.00 0.00 0.00 93 1012.5
20260510132809 76 17 2.6 5.2 0.00 0.00 0.00 93 1012.5
20260510132708 76 17 3.5 5.2 0.00 0.00 0.00 93 1012.5
20260510132605 76 17 3.5 5.2 0.00 0.00 0.00 93 1012.5
20260510132506 76 24 3.5 5.2 0.00 0.00 0.00 93 1012.4
20260510132403 76 23 2.6 5.2 0.00 0.00 0.00 93 1012.4
20260510132306 76 14 2.6 5.2 0.00 0.00 0.00 94 1012.4
20260510132204 76 27 1.7 6.1 0.00 0.00 0.00 94 1012.4
20260510132102 76 63 2.6 6.1 0.00 0.00 0.00 94 1012.4
20260510132001 76 63 3.5 6.1 0.00 0.00 0.00 94 1012.3
20260510131902 76 59 4.3 6.1 0.00 0.00 0.00 94 1012.4
20260510131803 76 34 3.5 6.1 0.00 0.00 0.00 94 1012.3
20260510131702 76 42 3.5 6.1 0.00 0.00 0.00 94 1012.2
20260510131603 76 54 3.5 6.1 0.00 0.00 0.00 94 1012.3
20260510131503 76 21 4.3 6.1 0.00 0.00 0.00 94 1012.3
20260510131403 76 39 4.3 6.1 0.00 0.00 0.00 94 1012.2
20260510131302 76 45 3.5 6.1 0.00 0.00 0.00 94 1012.2
20260510131203 76 32 3.5 5.2 0.00 0.00 0.00 94 1012.2
20260510131102 76 34 2.6 5.2 0.00 0.00 0.00 94 1012.2
20260510131005 76 32 2.6 5.2 0.00 0.00 0.00 94 1012.1
20260510130902 76 30 2.6 5.2 0.00 0.00 0.00 94 1012.1
20260510130803 76 31 3.5 5.2 0.00 0.00 0.00 94 1012.2
20260510130701 76 11 3.5 5.2 0.00 0.00 0.00 94 1012.1
20260510130602 76 44 3.5 5.2 0.00 0.00 0.00 94 1012.1
20260510130503 76 39 3.5 4.3 0.00 0.00 0.00 94 1012.0
20260510130402 76 45 3.5 4.3 0.00 0.00 0.00 94 1012.0
20260510130303 76 47 3.5 4.3 0.00 0.00 0.00 94 1012.1
20260510130202 76 51 3.5 4.3 0.00 0.00 0.00 94 1012.1
20260510130103 76 48 3.5 4.3 0.00 0.00 0.00 94 1012.1
20260510130002 76 42 3.5 5.2 0.00 0.00 0.00 94 1012.0
20260510125901 76 39 3.5 5.2 0.00 0.00 0.00 94 1012.0
20260510125803 76 39 3.5 5.2 0.00 0.00 0.00 94 1012.0
20260510125701 76 32 3.5 5.2 0.00 0.00 0.00 94 1011.9
20260510125601 76 34 3.5 5.2 0.00 0.00 0.00 94 1011.9
20260510125503 76 28 1.7 5.2 0.00 0.00 0.00 94 1011.9
20260510125403 76 49 0.9 5.2 0.00 0.00 0.00 94 1011.9
20260510125306 75 51 1.7 5.2 0.00 0.00 0.00 94 1011.9
20260510125202 75 51 2.6 5.2 0.00 0.00 0.00 94 1012.0
20260510125102 75 59 3.5 5.2 0.00 0.00 0.00 94 1011.9
20260510125002 75 18 2.6 4.3 0.00 0.00 0.00 94 1011.9
20260510124902 75 49 2.6 4.3 0.00 0.00 0.00 94 1011.9
20260510124803 75 49 2.6 4.3 0.00 0.00 0.00 94 1012.0
20260510124702 75 49 2.6 4.3 0.00 0.00 0.00 94 1011.9
20260510124603 75 48 2.6 4.3 0.00 0.00 0.00 94 1011.9
20260510124501 75 72 2.6 4.3 0.00 0.00 0.00 94 1011.9
20260510124403 75 72 2.6 4.3 0.00 0.00 0.00 94 1011.8
20260510124304 75 72 2.6 4.3 0.00 0.00 0.00 94 1012.0
20260510124202 75 55 2.6 4.3 0.00 0.00 0.00 94 1011.9
20260510124104 75 55 2.6 4.3 0.00 0.00 0.00 94 1011.9
20260510124003 75 55 3.5 4.3 0.00 0.00 0.00 94 1011.9
20260510123902 75 55 2.6 4.3 0.00 0.00 0.00 94 1011.9
20260510123802 75 34 2.6 4.3 0.00 0.00 0.00 94 1011.8
20260510123702 75 34 2.6 4.3 0.00 0.00 0.00 94 1011.8
20260510123602 75 34 3.5 5.2 0.00 0.00 0.00 94 1011.7
20260510123502 75 35 3.5 5.2 0.00 0.00 0.00 94 1011.7
20260510123403 75 28 3.5 5.2 0.00 0.00 0.00 94 1011.8
20260510123302 75 28 3.5 5.2 0.00 0.00 0.00 94 1011.8
20260510123201 75 42 3.5 5.2 0.00 0.00 0.00 94 1011.7
20260510123102 75 32 3.5 5.2 0.00 0.00 0.00 94 1011.7
20260510123003 75 35 3.5 5.2 0.00 0.00 0.00 94 1011.6
20260510122903 75 35 3.5 5.2 0.00 0.00 0.00 94 1011.6
20260510122804 75 35 3.5 5.2 0.00 0.00 0.00 94 1011.6
20260510122704 75 35 3.5 5.2 0.00 0.00 0.00 94 1011.6
20260510122602 75 20 3.5 4.3 0.00 0.00 0.00 94 1011.6
20260510122502 75 20 3.5 4.3 0.00 0.00 0.00 94 1011.5
20260510122404 75 17 2.6 4.3 0.00 0.00 0.00 94 1011.5
20260510122306 75 16 2.6 4.3 0.00 0.00 0.00 94 1011.4
20260510122202 75 16 3.5 4.3 0.00 0.00 0.00 94 1011.4
20260510122102 75 25 2.6 4.3 0.00 0.00 0.00 94 1011.4
20260510122003 75 17 1.7 4.3 0.00 0.00 0.00 94 1011.4
20260510121903 75 17 2.6 4.3 0.00 0.00 0.00 94 1011.4
20260510121802 75 17 3.5 4.3 0.00 0.00 0.00 94 1011.3
20260510121704 75 20 2.6 4.3 0.00 0.00 0.00 94 1011.5
20260510121603 75 20 2.6 4.3 0.00 0.00 0.00 94 1011.4
20260510121503 75 18 1.7 4.3 0.00 0.00 0.00 94 1011.3
20260510121403 75 18 2.6 4.3 0.00 0.00 0.00 94 1011.3
20260510121303 75 7 2.6 4.3 0.00 0.00 0.00 94 1011.2
20260510121202 75 6 2.6 3.5 0.00 0.00 0.00 94 1011.2
20260510121102 75 6 2.6 3.5 0.00 0.00 0.00 93 1011.2
20260510121004 75 30 2.6 3.5 0.00 0.00 0.00 93 1011.2
20260510120902 75 23 2.6 3.5 0.00 0.00 0.00 93 1011.2
20260510120803 75 21 2.6 3.5 0.00 0.00 0.00 93 1011.1
20260510120703 75 28 2.6 3.5 0.00 0.00 0.00 93 1011.1
20260510120603 75 30 2.6 3.5 0.00 0.00 0.00 93 1011.1
20260510120502 75 28 2.6 3.5 0.00 0.00 0.00 93 1011.1
20260510120402 75 30 2.6 3.5 0.00 0.00 0.00 93 1011.1
20260510120304 75 30 2.6 3.5 0.00 0.00 0.00 93 1011.0
20260510120203 75 30 2.6 3.5 0.00 0.00 0.00 93 1011.0
20260510120004 75 30 2.6 3.5 0.00 0.00 0.00 93 1011.1
20260510115902 75 30 2.6 3.5 0.00 0.00 0.00 93 1010.9
20260510115802 75 30 1.7 3.5 0.00 0.00 0.00 93 1011.0
20260510115702 75 44 0.9 2.6 0.00 0.00 0.00 93 1011.0
20260510115603 75 44 1.7 2.6 0.00 0.00 0.00 93 1011.0
20260510115502 75 44 1.7 2.6 0.00 0.00 0.00 93 1011.0
20260510115402 75 99 0.9 2.6 0.00 0.00 0.00 93 1010.9
20260510115306 75 99 0.0 2.6 0.00 0.00 0.00 93 1011.0
20260510115202 75 99 0.0 2.6 0.00 0.00 0.00 93 1010.9
20260510115102 75 99 0.0 2.6 0.00 0.00 0.00 93 1010.8
20260510115004 75 99 0.0 2.6 0.00 0.00 0.00 94 1010.9
20260510114902 75 99 0.0 2.6 0.00 0.00 0.00 94 1010.9
20260510114803 75 99 0.0 2.6 0.00 0.00 0.00 94 1010.9
20260510114703 75 99 0.0 2.6 0.00 0.00 0.00 94 1010.8
20260510114604 75 99 0.9 2.6 0.00 0.00 0.00 93 1010.8
20260510114503 75 99 0.9 2.6 0.00 0.00 0.00 94 1010.8
20260510114402 75 100 0.0 2.6 0.00 0.00 0.00 94 1010.8
20260510114303 75 125 0.0 2.6 0.00 0.00 0.00 94 1010.8
20260510114202 75 125 0.0 2.6 0.00 0.00 0.00 94 1010.6
20260510114102 75 125 0.0 2.6 0.00 0.00 0.00 94 1010.6
20260510114003 75 125 0.0 2.6 0.00 0.00 0.00 94 1010.6
20260510113903 75 125 0.9 2.6 0.00 0.00 0.00 94 1010.6
20260510113802 75 125 1.7 2.6 0.00 0.00 0.00 94 1010.5
20260510113704 75 125 1.7 2.6 0.00 0.00 0.00 94 1010.4
20260510113602 75 117 0.9 2.6 0.00 0.00 0.00 94 1010.4
20260510113502 75 125 0.0 2.6 0.00 0.00 0.00 94 1010.4
20260510113402 75 125 0.9 3.5 0.00 0.00 0.00 94 1010.3
20260510113304 75 125 1.7 3.5 0.00 0.00 0.00 94 1010.3
20260510113203 75 125 0.9 3.5 0.00 0.00 0.00 94 1010.2
20260510113102 75 133 0.9 3.5 0.00 0.00 0.00 94 1010.2
20260510113003 75 138 0.9 4.3 0.00 0.00 0.00 94 1010.2
20260510112904 75 138 1.7 4.3 0.00 0.00 0.00 94 1010.1
20260510112802 75 138 1.7 4.3 0.00 0.00 0.00 94 1010.2
20260510112702 75 107 0.9 4.3 0.00 0.00 0.00 94 1010.1
20260510112603 75 138 0.9 4.3 0.00 0.00 0.00 94 1010.1
20260510112504 75 145 0.9 4.3 0.00 0.00 0.00 94 1010.1
20260510112404 75 140 0.9 4.3 0.00 0.00 0.00 94 1010.1
20260510112305 75 140 2.6 4.3 0.00 0.00 0.00 94 1010.0
20260510112202 75 149 1.7 4.3 0.00 0.00 0.00 94 1010.0
20260510112103 74 152 0.9 4.3 0.00 0.00 0.00 94 1010.0
20260510112002 74 149 0.0 3.5 0.00 0.00 0.00 94 1010.0
20260510111903 74 133 0.0 3.5 0.00 0.00 0.00 94 1010.0
20260510111802 74 133 0.9 3.5 0.00 0.00 0.00 94 1009.9
20260510111703 74 133 0.9 3.5 0.00 0.00 0.00 94 1009.8
20260510111604 74 138 0.0 3.5 0.00 0.00 0.00 94 1009.9
20260510111504 74 138 0.0 3.5 0.00 0.00 0.00 94 1009.9
20260510111402 74 140 0.0 3.5 0.00 0.00 0.00 94 1009.9
20260510111302 74 140 1.7 4.3 0.00 0.00 0.00 94 1009.9
20260510111203 74 140 1.7 4.3 0.00 0.00 0.00 94 1009.9
20260510111103 74 161 1.7 4.3 0.00 0.00 0.00 94 1009.8
20260510111002 74 164 1.7 4.3 0.00 0.00 0.00 94 1009.9
20260510110903 74 134 1.7 4.3 0.00 0.00 0.00 94 1009.7
20260510110802 74 149 1.7 4.3 0.00 0.00 0.00 94 1009.8
20260510110702 74 141 1.7 4.3 0.00 0.00 0.00 94 1009.8
20260510110602 74 158 1.7 4.3 0.00 0.00 0.00 94 1009.8
20260510110505 74 83 2.6 4.3 0.00 0.00 0.00 94 1009.7
20260510110402 74 171 1.7 4.3 0.00 0.00 0.00 94 1009.7
20260510110302 74 128 0.9 3.5 0.00 0.00 0.00 94 1009.7
20260510110203 74 140 1.7 3.5 0.00 0.00 0.00 95 1009.6
20260510110104 74 135 1.7 3.5 0.00 0.00 0.00 95 1009.7
20260510110002 74 135 1.7 3.5 0.00 0.00 0.00 95 1009.6
20260510105903 74 162 1.7 3.5 0.00 0.00 0.00 95 1009.6
20260510105802 74 145 0.9 3.5 0.00 0.00 0.00 95 1009.6
20260510105701 74 135 0.9 4.3 0.00 0.00 0.00 95 1009.5
20260510105603 74 152 1.7 4.3 0.00 0.00 0.00 95 1009.5
20260510105504 74 131 1.7 4.3 0.00 0.00 0.00 95 1009.5
20260510105402 74 103 1.7 4.3 0.00 0.00 0.00 95 1009.4
20260510105306 74 168 1.7 4.3 0.00 0.00 0.00 95 1009.4
20260510105203 74 168 1.7 4.3 0.00 0.00 0.00 95 1009.3
20260510105102 74 89 1.7 4.3 0.00 0.00 0.00 95 1009.4
20260510105002 74 158 1.7 4.3 0.00 0.00 0.00 95 1009.4
20260510104902 74 130 1.7 4.3 0.00 0.00 0.00 95 1009.4
20260510104803 74 190 2.6 4.3 0.00 0.00 0.00 95 1009.4
20260510104702 74 159 1.7 3.5 0.00 0.00 0.00 95 1009.4
20260510104603 74 186 1.7 3.5 0.00 0.00 0.00 95 1009.4
20260510104504 74 121 1.7 3.5 0.00 0.00 0.00 95 1009.4
20260510104402 74 192 1.7 3.5 0.00 0.00 0.00 95 1009.4
20260510104302 74 190 0.9 3.5 0.00 0.00 0.00 95 1009.4
20260510104202 74 162 1.7 3.5 0.00 0.00 0.00 95 1009.4
20260510104104 74 162 1.7 3.5 0.00 0.00 0.00 95 1009.3
20260510104002 74 118 1.7 3.5 0.00 0.00 0.00 95 1009.3
20260510103901 74 145 0.9 3.5 0.00 0.00 0.00 95 1009.3
20260510103804 74 152 0.9 3.5 0.00 0.00 0.00 95 1009.3
20260510103702 74 137 0.9 3.5 0.00 0.00 0.00 95 1009.3
20260510103601 74 135 1.7 3.5 0.00 0.00 0.00 95 1009.3
20260510103503 74 118 0.9 3.5 0.00 0.00 0.00 95 1009.4
20260510103403 74 110 0.0 3.5 0.00 0.00 0.00 95 1009.3
20260510103303 74 110 0.9 5.2 0.00 0.00 0.00 95 1009.3
20260510103202 74 110 1.7 5.2 0.00 0.00 0.00 95 1009.4
20260510103103 74 145 1.7 5.2 0.00 0.00 0.00 95 1009.4
20260510103004 74 102 1.7 5.2 0.00 0.00 0.00 95 1009.3
20260510102902 74 131 1.7 5.2 0.00 0.00 0.00 95 1009.4
20260510102803 74 121 1.7 5.2 0.00 0.00 0.00 95 1009.4
20260510102702 74 157 1.7 5.2 0.00 0.00 0.00 95 1009.4
20260510102603 74 131 1.7 5.2 0.00 0.00 0.00 95 1009.4
20260510102502 74 152 2.6 5.2 0.00 0.00 0.00 95 1009.3
20260510102404 74 149 1.7 5.2 0.00 0.00 0.00 95 1009.3
20260510102301 74 113 1.7 5.2 0.00 0.00 0.00 95 1009.4
20260510102202 74 121 1.7 5.2 0.00 0.00 0.00 95 1009.4
20260510102104 74 125 2.6 5.2 0.00 0.00 0.00 95 1009.3
20260510102004 74 157 3.5 5.2 0.00 0.00 0.00 95 1009.3
20260510101901 74 161 2.6 5.2 0.00 0.00 0.00 95 1009.3
20260510101803 74 141 1.7 5.2 0.00 0.00 0.00 95 1009.3
20260510101703 74 189 0.9 5.2 0.00 0.00 0.00 95 1009.3
20260510101602 74 142 1.7 5.2 0.00 0.00 0.00 95 1009.3
20260510101502 74 158 1.7 5.2 0.00 0.00 0.00 95 1009.2
20260510101403 74 175 1.7 5.2 0.00 0.00 0.00 95 1009.2
20260510101301 74 144 1.7 5.2 0.00 0.00 0.00 95 1009.3
20260510101202 74 140 2.6 5.2 0.00 0.00 0.00 95 1009.3
20260510101103 74 127 1.7 5.2 0.00 0.00 0.00 95 1009.3
20260510101004 74 179 1.7 5.2 0.00 0.00 0.00 95 1009.3
20260510100902 74 114 1.7 5.2 0.00 0.00 0.00 95 1009.3
20260510100802 74 133 1.7 5.2 0.00 0.00 0.00 95 1009.3
20260510100704 74 221 1.7 5.2 0.00 0.00 0.00 95 1009.3
20260510100602 74 131 2.6 5.2 0.00 0.00 0.00 95 1009.3
20260510100503 74 159 2.6 5.2 0.00 0.00 0.00 95 1009.2
20260510100405 74 200 2.6 5.2 0.00 0.00 0.00 95 1009.3
20260510100302 74 107 2.6 5.2 0.00 0.00 0.00 95 1009.3
20260510100202 74 196 3.5 5.2 0.00 0.00 0.00 95 1009.2
20260510100005 74 165 1.7 5.2 0.00 0.00 0.00 95 1009.2
20260510095904 74 202 2.6 7.8 0.00 0.00 0.00 96 1009.3
20260510095803 74 49 2.6 7.8 0.00 0.00 0.00 96 1009.3
20260510095702 74 137 1.7 7.8 0.00 0.00 0.00 96 1009.2
20260510095603 74 353 1.7 7.8 0.00 0.00 0.00 96 1009.3
20260510095505 74 125 1.7 7.8 0.00 0.00 0.00 96 1009.3
20260510095402 74 118 2.6 7.8 0.00 0.00 0.00 96 1009.3
20260510095305 74 134 2.6 7.8 0.00 0.00 0.00 96 1009.3
20260510095202 74 141 2.6 7.8 0.00 0.00 0.00 96 1009.2
20260510095103 74 147 4.3 7.8 0.00 0.00 0.00 96 1009.2
20260510095004 74 162 3.5 7.8 0.00 0.00 0.00 96 1009.2
20260510094901 74 151 1.7 5.2 0.00 0.00 0.00 96 1009.3
20260510094803 74 114 1.7 5.2 0.00 0.00 0.00 96 1009.2
20260510094703 74 175 1.7 5.2 0.00 0.00 0.00 96 1009.2
20260510094602 74 175 1.7 5.2 0.00 0.00 0.00 96 1009.2
20260510094502 74 164 1.7 5.2 0.00 0.00 0.00 96 1009.2
20260510094403 74 138 2.6 5.2 0.00 0.00 0.00 96 1009.2
20260510094304 74 144 2.6 5.2 0.00 0.00 0.00 96 1009.1
20260510094202 74 137 3.5 5.2 0.00 0.00 0.00 96 1009.1
20260510094102 74 154 2.6 5.2 0.00 0.00 0.00 96 1009.1
20260510094003 74 212 1.7 5.2 0.00 0.00 0.00 96 1009.2
20260510093902 74 147 1.7 5.2 0.00 0.00 0.00 96 1009.2
20260510093802 74 137 1.7 5.2 0.00 0.00 0.00 96 1009.1
20260510093702 74 147 1.7 8.7 0.00 0.00 0.00 96 1009.2
20260510093603 74 138 2.6 8.7 0.00 0.00 0.00 96 1009.1
20260510093503 74 142 3.5 8.7 0.00 0.00 0.00 96 1009.1
20260510093402 74 133 3.5 8.7 0.00 0.00 0.00 96 1009.1
20260510093303 74 171 2.6 8.7 0.00 0.00 0.00 96 1009.0
20260510093202 74 172 2.6 8.7 0.00 0.00 0.00 96 1009.1
20260510093103 74 171 3.5 8.7 0.00 0.00 0.00 96 1009.0
20260510093004 74 171 3.5 8.7 0.00 0.00 0.00 96 1009.0
20260510092903 74 171 3.5 8.7 0.00 0.00 0.00 96 1009.1
20260510092803 74 171 3.5 8.7 0.00 0.00 0.00 96 1009.0
20260510092702 73 125 1.7 6.1 0.00 0.00 0.00 96 1009.0
20260510092601 73 197 2.6 6.1 0.00 0.00 0.00 96 1009.0
20260510092503 73 147 3.5 6.1 0.00 0.00 0.00 96 1009.0
20260510092402 73 147 2.6 5.2 0.00 0.00 0.00 96 1009.0
20260510092306 73 116 1.7 4.3 0.00 0.00 0.00 96 1008.9
20260510092203 73 157 2.6 3.5 0.00 0.00 0.00 96 1008.9
20260510092102 73 148 2.6 3.5 0.00 0.00 0.00 96 1008.9
20260510092002 73 93 1.7 3.5 0.00 0.00 0.00 96 1008.9
20260510091903 73 148 1.7 3.5 0.00 0.00 0.00 96 1009.0
20260510091804 73 155 1.7 2.6 0.00 0.00 0.00 96 1008.9
20260510091703 73 137 1.7 2.6 0.00 0.00 0.00 96 1008.9
20260510091604 73 158 0.9 2.6 0.00 0.00 0.00 95 1009.0
20260510091502 73 128 1.7 2.6 0.00 0.00 0.00 95 1008.9
20260510091402 73 127 0.9 2.6 0.00 0.00 0.00 95 1009.0
20260510091304 73 114 0.9 1.7 0.00 0.00 0.00 95 1008.9
20260510091203 73 113 0.9 2.6 0.00 0.00 0.00 95 1009.0
20260510091103 73 113 0.9 2.6 0.00 0.00 0.00 95 1009.0
20260510091004 73 113 0.9 2.6 0.00 0.00 0.00 95 1009.0
20260510090904 73 113 0.9 4.3 0.00 0.00 0.00 95 1009.0
20260510090803 73 113 0.9 4.3 0.00 0.00 0.00 95 1009.0
20260510090702 73 113 0.0 4.3 0.00 0.00 0.00 95 1009.0
20260510090604 73 113 0.0 4.3 0.00 0.00 0.00 95 1008.9
20260510090505 73 113 0.9 4.3 0.00 0.00 0.00 96 1009.0
20260510090402 73 113 1.7 4.3 0.00 0.00 0.00 95 1009.0
20260510090303 73 113 1.7 4.3 0.00 0.00 0.00 95 1009.0
20260510090203 73 154 1.7 4.3 0.00 0.00 0.00 95 1009.0
20260510090003 73 144 2.6 4.3 0.00 0.00 0.00 96 1008.9
20260510085903 73 165 2.6 4.3 0.00 0.00 0.00 96 1008.9
20260510085802 73 169 1.7 4.3 0.00 0.00 0.00 95 1009.0
20260510085701 73 144 1.7 4.3 0.00 0.00 0.00 95 1008.9
20260510085601 73 134 1.7 4.3 0.00 0.00 0.00 95 1008.9
20260510085503 73 124 1.7 4.3 0.00 0.00 0.00 95 1008.9
20260510085403 73 166 1.7 5.2 0.00 0.00 0.00 96 1008.9
20260510085306 73 145 1.7 5.2 0.00 0.00 0.00 95 1008.9
20260510085203 73 128 1.7 5.2 0.00 0.00 0.00 95 1008.9
20260510085103 73 149 1.7 5.2 0.00 0.00 0.00 95 1009.0
20260510085003 73 147 1.7 6.1 0.00 0.00 0.00 95 1008.9
20260510084903 73 131 1.7 6.1 0.00 0.00 0.00 95 1008.9
20260510084803 73 135 1.7 6.1 0.00 0.00 0.00 95 1008.9
20260510084703 73 151 2.6 6.1 0.00 0.00 0.00 95 1008.9
20260510084603 73 155 2.6 6.1 0.00 0.00 0.00 95 1008.9
20260510084504 73 169 1.7 6.1 0.00 0.00 0.00 95 1008.9
20260510084401 73 116 1.7 6.1 0.00 0.00 0.00 95 1008.9
20260510084302 73 133 1.7 6.1 0.00 0.00 0.00 95 1008.9
20260510084203 73 121 2.6 6.1 0.00 0.00 0.00 95 1008.9
20260510084104 73 133 2.6 6.1 0.00 0.00 0.00 95 1008.9
20260510084002 73 173 2.6 4.3 0.00 0.00 0.00 95 1009.0
20260510083902 73 130 1.7 4.3 0.00 0.00 0.00 95 1008.9
20260510083803 73 118 1.7 4.3 0.00 0.00 0.00 95 1008.9
20260510083702 73 164 2.6 4.3 0.00 0.00 0.00 95 1008.9
20260510083602 73 173 1.7 4.3 0.00 0.00 0.00 95 1008.8
20260510083502 73 114 2.6 4.3 0.00 0.00 0.00 95 1008.9
20260510083402 73 142 2.6 4.3 0.00 0.00 0.00 95 1008.9
20260510083304 73 158 2.6 3.5 0.00 0.00 0.00 95 1008.9
20260510083203 73 145 1.7 3.5 0.00 0.00 0.00 95 1008.9
20260510083102 73 158 1.7 3.5 0.00 0.00 0.00 95 1008.9
20260510083006 73 145 1.7 3.5 0.00 0.00 0.00 95 1008.9
20260510082904 73 145 1.7 3.5 0.00 0.00 0.00 95 1008.9
20260510082803 73 128 1.7 3.5 0.00 0.00 0.00 95 1009.0
20260510082703 73 138 1.7 3.5 0.00 0.00 0.00 95 1008.9
20260510082602 73 144 1.7 4.3 0.00 0.00 0.00 95 1009.0
20260510082503 73 155 1.7 4.3 0.00 0.00 0.00 95 1009.0
20260510082402 73 113 0.9 4.3 0.00 0.00 0.00 95 1009.0
20260510082306 73 117 1.7 4.3 0.00 0.00 0.00 95 1009.0
20260510082203 73 117 1.7 4.3 0.00 0.00 0.00 95 1009.0
20260510082104 73 128 1.7 4.3 0.00 0.00 0.00 95 1009.0
20260510082002 73 145 1.7 4.3 0.00 0.00 0.00 95 1009.0
20260510081902 73 176 1.7 4.3 0.00 0.00 0.00 95 1009.0
20260510081803 73 166 1.7 4.3 0.00 0.00 0.00 95 1009.1
20260510081702 73 169 1.7 4.3 0.00 0.00 0.00 95 1009.1
20260510081602 73 190 0.9 2.6 0.00 0.00 0.00 95 1009.0
20260510081502 73 172 0.0 2.6 0.00 0.00 0.00 95 1009.1
20260510081402 73 110 0.0 0.0 0.00 0.00 0.00 95 1009.1
20260510081303 73 169 0.0 0.0 0.00 0.00 0.00 95 1009.1
20260510081202 73 175 0.0 0.0 0.00 0.00 0.00 95 1009.1
20260510081103 73 175 0.0 0.0 0.00 0.00 0.00 95 1009.1
20260510081002 73 189 0.0 0.0 0.00 0.00 0.00 95 1009.1
20260510080902 73 189 0.0 0.0 0.00 0.00 0.00 95 1009.1
20260510080802 73 189 0.0 0.0 0.00 0.00 0.00 95 1009.2
20260510080703 73 189 0.0 0.0 0.00 0.00 0.00 95 1009.2
20260510080602 73 189 0.0 0.0 0.00 0.00 0.00 95 1009.1
20260510080502 73 189 0.0 0.0 0.00 0.00 0.00 95 1009.2
20260510080403 73 189 0.0 0.0 0.00 0.00 0.00 95 1009.2
20260510080302 73 189 0.0 0.0 0.00 0.00 0.00 95 1009.2
20260510080202 73 189 0.0 0.0 0.00 0.00 0.00 94 1009.2
20260510080004 74 189 0.0 0.0 0.00 0.00 0.00 95 1009.2
20260510075901 74 189 0.0 0.0 0.00 0.00 0.00 95 1009.2
20260510075802 74 189 0.0 0.0 0.00 0.00 0.00 95 1009.1
20260510075704 74 189 0.0 0.0 0.00 0.00 0.00 95 1009.1
20260510075603 74 189 0.0 0.0 0.00 0.00 0.00 95 1009.2
20260510075502 73 189 0.0 0.0 0.00 0.00 0.00 94 1009.2
20260510075403 73 189 0.0 0.0 0.00 0.00 0.00 94 1009.2
20260510075305 74 189 0.0 0.0 0.00 0.00 0.00 95 1009.2
20260510075202 74 189 0.0 0.0 0.00 0.00 0.00 95 1009.2
20260510075103 74 189 0.0 0.0 0.00 0.00 0.00 95 1009.1
20260510075002 74 189 0.0 0.0 0.00 0.00 0.00 95 1009.2
20260510074902 74 189 0.0 0.0 0.00 0.00 0.00 95 1009.2
20260510074802 74 189 0.0 0.0 0.00 0.00 0.00 95 1009.2
20260510074703 74 189 0.0 0.0 0.00 0.00 0.00 95 1009.1
20260510074603 74 189 0.0 0.0 0.00 0.00 0.00 94 1009.2
20260510074502 74 189 0.0 0.0 0.00 0.00 0.00 95 1009.1
20260510074403 74 189 0.0 0.0 0.00 0.00 0.00 95 1009.1
20260510074303 74 189 0.0 0.0 0.00 0.00 0.00 94 1009.1
20260510074202 74 189 0.0 0.0 0.00 0.00 0.00 94 1009.1
20260510074102 74 189 0.0 0.0 0.00 0.00 0.00 94 1009.1
20260510074004 74 189 0.0 0.0 0.00 0.00 0.00 94 1009.1
20260510073902 74 189 0.0 0.0 0.00 0.00 0.00 94 1009.1
20260510073802 74 189 0.0 0.0 0.00 0.00 0.00 95 1009.2
20260510073703 74 189 0.0 0.0 0.00 0.00 0.00 95 1009.1
20260510073603 74 189 0.0 0.0 0.00 0.00 0.00 94 1009.1
20260510073503 74 190 0.0 0.0 0.00 0.00 0.00 94 1009.1
20260510073402 74 190 0.0 0.0 0.00 0.00 0.00 94 1009.1
20260510073302 74 190 0.0 0.0 0.00 0.00 0.00 94 1009.1
20260510073203 74 190 0.0 0.0 0.00 0.00 0.00 94 1009.2
20260510073101 74 190 0.0 0.0 0.00 0.00 0.00 94 1009.2
20260510073004 74 190 0.0 0.0 0.00 0.00 0.00 94 1009.1
20260510072902 74 190 0.0 0.9 0.00 0.00 0.00 94 1009.1
20260510072802 74 190 0.0 0.9 0.00 0.00 0.00 94 1009.1
20260510072703 74 190 0.0 0.9 0.00 0.00 0.00 94 1009.1
20260510072602 74 190 0.0 1.7 0.00 0.00 0.00 94 1009.1
20260510072503 74 190 0.0 1.7 0.00 0.00 0.00 94 1009.1
20260510072402 74 137 0.0 1.7 0.00 0.00 0.00 94 1009.1
20260510072305 74 137 0.0 2.6 0.00 0.00 0.00 94 1009.1
20260510072202 74 137 0.0 2.6 0.00 0.00 0.00 94 1009.1
20260510072103 74 137 0.0 2.6 0.00 0.00 0.00 94 1009.1
20260510072003 74 137 0.0 2.6 0.00 0.00 0.00 94 1009.1
20260510071903 74 137 0.0 2.6 0.00 0.00 0.00 94 1009.0
20260510071802 74 140 0.0 2.6 0.00 0.00 0.00 94 1009.0
20260510071702 74 134 0.9 2.6 0.00 0.00 0.00 94 1009.0
20260510071604 74 134 1.7 3.5 0.00 0.00 0.00 94 1009.0
20260510071502 74 134 1.7 3.5 0.00 0.00 0.00 94 1009.0
20260510071402 74 120 1.7 3.5 0.00 0.00 0.00 94 1009.0
20260510071303 74 144 0.9 3.5 0.00 0.00 0.00 94 1009.1
20260510071202 74 147 0.9 3.5 0.00 0.00 0.00 94 1009.0
20260510071103 74 127 0.0 3.5 0.00 0.00 0.00 94 1009.1
20260510071002 74 127 0.9 3.5 0.00 0.00 0.00 94 1009.1
20260510070903 74 127 0.9 3.5 0.00 0.00 0.00 94 1009.2
20260510070802 74 124 1.7 3.5 0.00 0.00 0.00 94 1009.2
20260510070702 74 124 0.9 3.5 0.00 0.00 0.00 94 1009.2
20260510070603 74 118 0.9 2.6 0.00 0.00 0.00 94 1009.2
20260510070503 74 134 0.9 2.6 0.00 0.00 0.00 94 1009.2
20260510070402 74 134 0.9 2.6 0.00 0.00 0.00 94 1009.2
20260510070304 74 134 1.7 2.6 0.00 0.00 0.00 94 1009.2
20260510070202 74 135 1.7 2.6 0.00 0.00 0.00 94 1009.2
20260510070104 74 138 0.9 3.5 0.00 0.00 0.00 93 1009.2
20260510070003 75 141 0.9 3.5 0.00 0.00 0.00 93 1009.2
20260510065903 75 142 1.7 3.5 0.00 0.00 0.00 93 1009.2
20260510065803 75 172 1.7 3.5 0.00 0.00 0.00 93 1009.2
20260510065702 75 137 1.7 3.5 0.00 0.00 0.00 93 1009.2
20260510065603 75 137 1.7 4.3 0.00 0.00 0.00 93 1009.2
20260510065504 75 137 1.7 4.3 0.00 0.00 0.00 93 1009.2
20260510065403 75 137 1.7 4.3 0.00 0.00 0.00 93 1009.1
20260510065306 75 137 1.7 4.3 0.00 0.00 0.00 93 1009.2
20260510065202 75 157 1.7 4.3 0.00 0.00 0.00 93 1009.1
20260510065102 75 158 1.7 4.3 0.00 0.00 0.00 93 1009.1
20260510065003 75 118 1.7 4.3 0.00 0.00 0.00 93 1009.2
20260510064903 75 169 1.7 4.3 0.00 0.00 0.00 93 1009.1
20260510064803 75 154 1.7 4.3 0.00 0.00 0.00 93 1009.1
20260510064704 75 159 1.7 4.3 0.00 0.00 0.00 93 1009.1
20260510064603 75 173 1.7 4.3 0.00 0.00 0.00 93 1009.2
20260510064503 75 166 2.6 4.3 0.00 0.00 0.00 93 1009.2
20260510064403 75 193 2.6 4.3 0.00 0.00 0.00 93 1009.2
20260510064302 75 158 2.6 4.3 0.00 0.00 0.00 93 1009.2
20260510064202 75 179 1.7 4.3 0.00 0.00 0.00 93 1009.2
20260510064102 75 169 1.7 4.3 0.00 0.00 0.00 93 1009.2
20260510064004 75 197 0.9 4.3 0.00 0.00 0.00 93 1009.2
20260510063903 75 158 0.9 5.2 0.00 0.00 0.00 93 1009.2
20260510063803 75 157 1.7 5.2 0.00 0.00 0.00 93 1009.2
20260510063701 75 130 1.7 5.2 0.00 0.00 0.00 93 1009.3
20260510063601 75 131 0.9 5.2 0.00 0.00 0.00 93 1009.2
20260510063503 75 169 0.9 5.2 0.00 0.00 0.00 93 1009.2
20260510063402 75 148 1.7 5.2 0.00 0.00 0.00 93 1009.2
20260510063302 75 120 1.7 5.2 0.00 0.00 0.00 93 1009.2
20260510063202 75 107 1.7 5.2 0.00 0.00 0.00 93 1009.2
20260510063103 75 128 2.6 5.2 0.00 0.00 0.00 93 1009.2
20260510063002 75 183 1.7 5.2 0.00 0.00 0.00 93 1009.2
20260510062903 75 131 1.7 5.2 0.00 0.00 0.00 93 1009.2
20260510062802 75 120 1.7 5.2 0.00 0.00 0.00 93 1009.2
20260510062702 75 31 1.7 5.2 0.00 0.00 0.00 93 1009.1
20260510062602 75 30 2.6 5.2 0.00 0.00 0.00 93 1009.2
20260510062504 75 47 3.5 5.2 0.00 0.00 0.00 93 1009.2
20260510062402 75 32 3.5 4.3 0.00 0.00 0.00 93 1009.2
20260510062306 75 32 3.5 4.3 0.00 0.00 0.00 93 1009.2
20260510062204 75 38 3.5 4.3 0.00 0.00 0.00 93 1009.3
20260510062102 75 30 2.6 4.3 0.00 0.00 0.00 93 1009.2
20260510062002 75 35 1.7 5.2 0.00 0.00 0.00 93 1009.2
20260510061903 75 30 1.7 5.2 0.00 0.00 0.00 93 1009.2
20260510061804 75 37 1.7 5.2 0.00 0.00 0.00 93 1009.2
20260510061702 75 30 1.7 5.2 0.00 0.00 0.00 93 1009.2
20260510061602 75 62 1.7 5.2 0.00 0.00 0.00 93 1009.2
20260510061503 75 49 1.7 5.2 0.00 0.00 0.00 93 1009.2
20260510061402 75 35 1.7 5.2 0.00 0.00 0.00 93 1009.2
20260510061303 75 34 1.7 5.2 0.00 0.00 0.00 93 1009.2
20260510061203 75 41 2.6 5.2 0.00 0.00 0.00 93 1009.2
20260510061103 75 58 2.6 5.2 0.00 0.00 0.00 93 1009.2
20260510061002 75 39 2.6 5.2 0.00 0.00 0.00 93 1009.2
20260510060903 75 42 3.5 5.2 0.00 0.00 0.00 93 1009.3
20260510060802 75 45 2.6 5.2 0.00 0.00 0.00 93 1009.2
20260510060702 75 39 1.7 5.2 0.00 0.00 0.00 93 1009.2
20260510060602 75 45 1.7 5.2 0.00 0.00 0.00 93 1009.3
20260510060502 75 37 1.7 5.2 0.00 0.00 0.00 93 1009.2
20260510060403 75 38 2.6 5.2 0.00 0.00 0.00 93 1009.2
20260510060302 75 37 1.7 5.2 0.00 0.00 0.00 93 1009.2
20260510060202 75 0 1.7 4.3 0.00 0.00 0.00 93 1009.2
20260510060104 75 24 1.7 4.3 0.00 0.00 0.00 93 1009.3
20260510060003 75 41 1.7 4.3 0.00 0.00 0.00 93 1009.2
20260510055902 75 32 2.6 4.3 0.00 0.00 0.00 93 1009.3
20260510055804 75 31 1.7 4.3 0.00 0.00 0.00 93 1009.3
20260510055703 75 37 2.6 4.3 0.00 0.00 0.00 93 1009.3
20260510055602 75 38 1.7 4.3 0.00 0.00 0.00 93 1009.3
20260510055502 75 37 0.9 4.3 0.00 0.00 0.00 93 1009.3
20260510055403 75 35 1.7 4.3 0.00 0.00 0.00 93 1009.3
20260510055301 75 44 2.6 4.3 0.00 0.00 0.00 93 1009.3
20260510055202 75 37 2.6 4.3 0.00 0.00 0.00 93 1009.2
20260510055104 75 32 0.9 3.5 0.00 0.00 0.00 93 1009.3
20260510055002 75 27 1.7 3.5 0.00 0.00 0.00 93 1009.3
20260510054901 75 27 1.7 4.3 0.00 0.00 0.00 93 1009.3
20260510054801 75 30 1.7 4.3 0.00 0.00 0.00 93 1009.3
20260510054704 75 30 1.7 4.3 0.00 0.00 0.00 93 1009.3
20260510054602 75 35 1.7 4.3 0.00 0.00 0.00 93 1009.3
20260510054503 75 38 1.7 4.3 0.00 0.00 0.00 93 1009.3
20260510054402 75 44 1.7 4.3 0.00 0.00 0.00 93 1009.3
20260510054303 75 34 1.7 4.3 0.00 0.00 0.00 93 1009.3
20260510054203 75 31 1.7 4.3 0.00 0.00 0.00 93 1009.3
20260510054103 75 35 1.7 5.2 0.00 0.00 0.00 93 1009.3
20260510054003 75 38 1.7 5.2 0.00 0.00 0.00 93 1009.4
20260510053902 75 23 1.7 5.2 0.00 0.00 0.00 93 1009.4
20260510053802 75 41 1.7 5.2 0.00 0.00 0.00 93 1009.3
20260510053702 75 25 2.6 5.2 0.00 0.00 0.00 93 1009.4
20260510053602 75 37 2.6 5.2 0.00 0.00 0.00 93 1009.3
20260510053502 75 32 1.7 5.2 0.00 0.00 0.00 93 1009.4
20260510053403 75 27 1.7 5.2 0.00 0.00 0.00 93 1009.3
20260510053302 75 32 2.6 5.2 0.00 0.00 0.00 93 1009.3
20260510053202 75 27 2.6 5.2 0.00 0.00 0.00 93 1009.3
20260510053102 75 37 2.6 5.2 0.00 0.00 0.00 93 1009.3
20260510053003 75 28 2.6 5.2 0.00 0.00 0.00 93 1009.4
20260510052902 75 31 2.6 5.2 0.00 0.00 0.00 93 1009.4
20260510052803 75 28 2.6 5.2 0.00 0.00 0.00 93 1009.4
20260510052702 75 25 2.6 5.2 0.00 0.00 0.00 92 1009.4
20260510052602 75 21 3.5 5.2 0.00 0.00 0.00 92 1009.3
20260510052504 75 34 3.5 5.2 0.00 0.00 0.00 92 1009.4
20260510052403 75 25 2.6 5.2 0.00 0.00 0.00 92 1009.3
20260510052306 75 35 3.5 4.3 0.00 0.00 0.00 92 1009.4
20260510052202 75 28 2.6 4.3 0.00 0.00 0.00 92 1009.4
20260510052103 75 30 1.7 4.3 0.00 0.00 0.00 92 1009.4
20260510052003 75 25 1.7 4.3 0.00 0.00 0.00 92 1009.5
20260510051901 75 25 1.7 4.3 0.00 0.00 0.00 92 1009.4
20260510051801 75 21 1.7 4.3 0.00 0.00 0.00 92 1009.4
20260510051658 75 27 2.6 4.3 0.00 0.00 0.00 92 1009.4
20260510051558 75 35 1.7 4.3 0.00 0.00 0.00 92 1009.3
20260510051455 75 31 0.9 5.2 0.00 0.00 0.00 92 1009.3
20260510051354 75 27 0.9 5.2 0.00 0.00 0.00 92 1009.3
20260510051253 75 28 1.7 5.2 0.00 0.00 0.00 92 1009.4
20260510051152 75 30 1.7 5.2 0.00 0.00 0.00 92 1009.4
20260510051048 75 39 1.7 5.2 0.00 0.00 0.00 92 1009.5
20260510050947 75 27 1.7 5.2 0.00 0.00 0.00 92 1009.5
20260510050846 75 24 1.7 6.1 0.00 0.00 0.00 91 1009.5
20260510050746 75 34 2.6 6.1 0.00 0.00 0.00 91 1009.5
20260510050645 75 35 2.6 6.1 0.00 0.00 0.00 91 1009.5
20260510050543 75 27 2.6 6.1 0.00 0.00 0.00 91 1009.5
20260510050440 75 32 2.6 6.1 0.00 0.00 0.00 91 1009.6
20260510050338 75 34 2.6 6.1 0.00 0.00 0.00 91 1009.5
20260510050238 75 25 2.6 6.1 0.00 0.00 0.00 91 1009.5
20260510050135 75 28 3.5 8.7 0.00 0.00 0.00 91 1009.6
20260510050035 75 31 4.3 8.7 0.00 0.00 0.00 91 1009.5
20260510045933 75 25 3.5 8.7 0.00 0.00 0.00 91 1009.5
20260510045832 75 28 2.6 8.7 0.00 0.00 0.00 91 1009.6
20260510045731 75 25 3.5 8.7 0.00 0.00 0.00 91 1009.6
20260510045630 75 28 4.3 8.7 0.00 0.00 0.00 91 1009.6
20260510045531 75 27 4.3 8.7 0.00 0.00 0.00 91 1009.5
20260510045431 75 27 5.2 8.7 0.00 0.00 0.00 91 1009.6
20260510045331 75 27 5.2 8.7 0.00 0.00 0.00 91 1009.5
20260510045233 75 28 5.2 8.7 0.00 0.00 0.00 91 1009.6
20260510045131 75 25 4.3 9.6 0.00 0.00 0.00 91 1009.6
20260510045031 75 31 3.5 9.6 0.00 0.00 0.00 91 1009.6
20260510044931 75 27 3.5 9.6 0.00 0.00 0.00 91 1009.6
20260510044831 75 28 3.5 9.6 0.00 0.00 0.00 90 1009.6
20260510044731 75 28 3.5 9.6 0.00 0.00 0.00 90 1009.5
20260510044632 75 28 3.5 9.6 0.00 0.00 0.00 90 1009.6
20260510044532 75 30 2.6 9.6 0.00 0.00 0.00 90 1009.5
20260510044432 75 27 3.5 10.4 0.00 0.00 0.00 90 1009.6
20260510044331 75 37 5.2 11.3 0.00 0.00 0.00 90 1009.6
20260510044229 75 25 4.3 11.3 0.00 0.00 0.00 90 1009.6
20260510044129 75 21 4.3 11.3 0.00 0.00 0.00 90 1009.6
20260510044027 75 38 5.2 11.3 0.00 0.00 0.00 90 1009.7
20260510043926 75 30 6.1 11.3 0.00 0.00 0.00 90 1009.7
20260510043824 75 21 5.2 11.3 0.00 0.00 0.00 90 1009.7
20260510043723 75 30 5.2 11.3 0.00 0.00 0.00 90 1009.7
20260510043620 75 28 7.0 11.3 0.00 0.00 0.00 89 1009.7
20260510043520 75 28 7.0 11.3 0.00 0.00 0.00 89 1009.7
20260510043418 75 31 6.1 11.3 0.00 0.00 0.00 89 1009.8
20260510043317 75 27 5.2 11.3 0.00 0.00 0.00 89 1009.8
20260510043214 75 30 6.1 11.3 0.00 0.00 0.00 89 1009.8
20260510043112 75 27 7.8 11.3 0.00 0.00 0.00 89 1009.8
20260510043012 75 34 7.8 11.3 0.00 0.00 0.00 89 1009.8
20260510042910 75 31 7.0 9.6 0.00 0.00 0.00 89 1009.8
20260510042810 75 28 7.8 10.4 0.00 0.00 0.00 89 1009.8
20260510042708 75 25 6.1 11.3 0.00 0.00 0.00 89 1009.8
20260510042604 75 27 4.3 11.3 0.00 0.00 0.00 89 1009.8
20260510042504 75 17 4.3 11.3 0.00 0.00 0.00 89 1009.8
20260510042402 75 31 5.2 11.3 0.00 0.00 0.00 88 1009.7
20260510042305 75 27 5.2 11.3 0.00 0.00 0.00 88 1009.8
20260510042204 75 21 5.2 11.3 0.00 0.00 0.00 88 1009.8
20260510042103 75 30 5.2 11.3 0.00 0.00 0.00 88 1009.8
20260510042005 75 30 7.0 11.3 0.00 0.00 0.00 88 1009.8
20260510041903 75 30 8.7 11.3 0.00 0.00 0.00 88 1009.8
20260510041802 75 30 7.0 11.3 0.00 0.00 0.00 88 1009.8
20260510041701 75 30 5.2 10.4 0.00 0.00 0.00 88 1009.8
20260510041601 75 34 6.1 10.4 0.00 0.00 0.00 88 1009.8
20260510041504 75 30 7.8 10.4 0.00 0.00 0.00 87 1009.8
20260510041402 75 31 7.8 10.4 0.00 0.00 0.00 87 1009.9
20260510041302 75 32 7.8 10.4 0.00 0.00 0.00 87 1009.8
20260510041203 75 30 7.0 9.6 0.00 0.00 0.00 87 1009.8
20260510041102 75 35 6.1 9.6 0.00 0.00 0.00 87 1009.8
20260510041004 75 38 4.3 9.6 0.00 0.00 0.00 87 1009.9
20260510040902 75 31 4.3 9.6 0.00 0.00 0.00 87 1009.9
20260510040802 75 21 5.2 9.6 0.00 0.00 0.00 87 1010.0
20260510040705 75 25 6.1 9.6 0.00 0.00 0.00 87 1010.0
20260510040603 75 30 5.2 10.4 0.00 0.00 0.00 87 1010.0
20260510040505 75 24 4.3 10.4 0.00 0.00 0.00 87 1010.0
20260510040403 75 23 6.1 10.4 0.00 0.00 0.00 87 1010.0
20260510040303 75 27 5.2 10.4 0.00 0.00 0.00 87 1010.0
20260510040202 75 24 3.5 10.4 0.00 0.00 0.00 87 1009.9
20260510040004 75 31 5.2 10.4 0.00 0.00 0.00 87 1009.9
20260510035902 75 21 6.1 10.4 0.00 0.00 0.00 87 1009.9
20260510035804 75 21 7.8 10.4 0.00 0.00 0.00 87 1009.9
20260510035702 75 30 7.0 10.4 0.00 0.00 0.00 86 1009.9
20260510035601 75 24 5.2 9.6 0.00 0.00 0.00 86 1010.0
20260510035501 75 23 5.2 9.6 0.00 0.00 0.00 86 1009.9
20260510035358 75 30 5.2 9.6 0.00 0.00 0.00 86 1010.0
20260510035258 75 27 6.1 9.6 0.00 0.00 0.00 86 1010.0
20260510035155 75 32 6.1 9.6 0.00 0.00 0.00 86 1010.0
20260510035055 75 25 5.2 8.7 0.00 0.00 0.00 86 1010.0
20260510034953 75 21 5.2 8.7 0.00 0.00 0.00 86 1010.0
20260510034853 75 31 4.3 8.7 0.00 0.00 0.00 86 1010.0
20260510034749 75 21 4.3 8.7 0.00 0.00 0.00 86 1010.0
20260510034647 75 20 5.2 8.7 0.00 0.00 0.00 86 1010.0
20260510034547 75 34 5.2 8.7 0.00 0.00 0.00 85 1010.0
20260510034445 75 20 5.2 8.7 0.00 0.00 0.00 85 1010.0
20260510034343 75 30 5.2 8.7 0.00 0.00 0.00 85 1010.0
20260510034242 75 27 3.5 8.7 0.00 0.00 0.00 85 1010.0
20260510034141 75 23 2.6 8.7 0.00 0.00 0.00 85 1009.9
20260510034037 75 30 2.6 8.7 0.00 0.00 0.00 85 1009.8
20260510033936 75 27 3.5 9.6 0.00 0.00 0.00 85 1009.8
20260510033837 75 31 4.3 10.4 0.00 0.00 0.00 85 1009.7
20260510033735 75 32 5.2 10.4 0.00 0.00 0.00 84 1009.6
20260510033634 75 34 6.1 10.4 0.00 0.00 0.00 84 1009.6
20260510033536 75 32 7.0 10.4 0.00 0.00 0.00 84 1009.6
20260510033434 75 34 6.1 10.4 0.00 0.00 0.00 84 1009.7
20260510033334 75 31 5.2 10.4 0.00 0.00 0.00 84 1009.6
20260510033235 75 28 6.1 10.4 0.00 0.00 0.00 84 1009.6
20260510033135 75 38 7.0 10.4 0.00 0.00 0.00 84 1009.6
20260510033034 75 31 6.1 10.4 0.00 0.00 0.00 84 1009.6
20260510032934 75 34 7.0 10.4 0.00 0.00 0.00 83 1009.6
20260510032836 75 28 7.8 9.6 0.00 0.00 0.00 83 1009.7
20260510032734 75 37 7.0 9.6 0.00 0.00 0.00 83 1009.8
20260510032634 75 25 6.1 9.6 0.00 0.00 0.00 83 1009.8
20260510032536 75 27 5.2 9.6 0.00 0.00 0.00 83 1009.8
20260510032434 75 34 7.0 10.4 0.00 0.00 0.00 83 1009.8
20260510032334 75 27 6.1 10.4 0.00 0.00 0.00 83 1009.8
20260510032235 75 28 5.2 10.4 0.00 0.00 0.00 82 1009.8
20260510032134 75 24 5.2 10.4 0.00 0.00 0.00 82 1009.9
20260510032035 75 27 5.2 10.4 0.00 0.00 0.00 82 1009.9
20260510031934 75 31 5.2 11.3 0.00 0.00 0.00 82 1010.0
20260510031835 75 27 5.2 11.3 0.00 0.00 0.00 82 1010.0
20260510031734 75 27 6.1 11.3 0.00 0.00 0.00 82 1010.0
20260510031634 75 30 7.0 12.2 0.00 0.00 0.00 82 1010.0
20260510031534 75 31 5.2 12.2 0.00 0.00 0.00 82 1010.1
20260510031434 75 30 5.2 12.2 0.00 0.00 0.00 82 1010.2
20260510031335 75 30 6.1 12.2 0.00 0.00 0.00 82 1010.1
20260510031234 75 28 6.1 12.2 0.00 0.00 0.00 82 1010.2
20260510031136 75 25 7.8 12.2 0.00 0.00 0.00 81 1010.2
20260510031034 75 30 7.8 12.2 0.00 0.00 0.00 81 1010.2
20260510030935 75 28 7.0 12.2 0.00 0.00 0.00 81 1010.3
20260510030835 75 21 7.8 14.8 0.00 0.00 0.00 81 1010.3
20260510030735 76 27 7.0 15.6 0.00 0.00 0.00 81 1010.4
20260510030634 76 23 7.0 15.6 0.00 0.00 0.00 81 1010.3
20260510030534 76 25 7.0 15.6 0.00 0.00 0.00 80 1010.2
20260510030435 76 23 7.0 15.6 0.00 0.00 0.00 80 1010.2
20260510030333 76 30 6.1 15.6 0.00 0.00 0.00 80 1010.2
20260510030233 75 20 5.2 15.6 0.00 0.00 0.00 80 1010.1
20260510030135 75 30 7.0 15.6 0.00 0.00 0.00 80 1010.0
20260510030033 76 27 8.7 15.6 0.00 0.00 0.00 80 1010.0
20260510025934 75 35 9.6 15.6 0.00 0.00 0.00 79 1010.0
20260510025833 75 27 9.6 15.6 0.00 0.00 0.00 79 1009.9
20260510025735 75 28 9.6 16.5 0.00 0.00 0.00 79 1009.9
20260510025633 75 39 7.8 16.5 0.00 0.00 0.00 79 1009.9
20260510025533 75 28 7.8 16.5 0.00 0.00 0.00 79 1009.6
20260510025435 75 32 9.6 16.5 0.00 0.00 0.00 79 1009.6
20260510025333 76 93 8.7 16.5 0.00 0.00 0.00 79 1009.7
20260510025233 76 92 8.7 16.5 0.00 0.00 0.00 79 1009.7
20260510025133 76 96 10.4 16.5 0.00 0.00 0.00 79 1009.7
20260510025034 76 100 11.3 17.4 0.00 0.00 0.00 79 1009.7
20260510024933 76 73 11.3 17.4 0.00 0.00 0.00 79 1009.7
20260510024834 76 114 10.4 17.4 0.00 0.00 0.00 79 1009.7
20260510024734 76 89 9.6 18.2 0.00 0.00 0.00 79 1009.8
20260510024633 76 69 10.4 18.2 0.00 0.00 0.00 79 1009.8
20260510024533 76 78 10.4 18.2 0.00 0.00 0.00 79 1009.8
20260510024433 76 106 10.4 18.2 0.00 0.00 0.00 79 1009.8
20260510024333 76 75 11.3 18.2 0.00 0.00 0.00 80 1009.7
20260510024233 76 92 11.3 18.2 0.00 0.00 0.00 80 1009.8
20260510024133 76 99 11.3 22.6 0.00 0.00 0.00 80 1009.7
20260510024034 76 87 9.6 22.6 0.00 0.00 0.00 80 1009.7
20260510023933 76 92 11.3 22.6 0.00 0.00 0.00 80 1009.7
20260510023833 76 113 12.2 22.6 0.00 0.00 0.00 81 1009.6
20260510023733 77 102 11.3 22.6 0.00 0.00 0.00 81 1009.6
20260510023634 77 94 12.2 22.6 0.00 0.00 0.00 81 1009.5
20260510023533 77 85 12.2 22.6 0.00 0.00 0.00 82 1009.6
20260510023433 77 104 11.3 22.6 0.00 0.00 0.00 82 1009.6
20260510023334 77 89 12.2 22.6 0.00 0.00 0.00 82 1009.6
20260510023234 78 79 13.0 22.6 0.00 0.00 0.00 83 1009.7
20260510023133 78 85 13.0 22.6 0.00 0.00 0.00 84 1009.6
20260510023034 78 86 13.0 22.6 0.00 0.00 0.00 84 1009.6
20260510022934 78 93 13.0 22.6 0.00 0.00 0.00 85 1009.5
20260510022833 78 92 11.3 22.6 0.00 0.00 0.00 85 1009.5
20260510022733 79 123 12.2 22.6 0.00 0.00 0.00 85 1009.3
20260510022634 79 106 13.0 22.6 0.00 0.00 0.00 85 1009.3
20260510022533 79 103 10.4 24.3 0.00 0.00 0.00 86 1009.3
20260510022432 79 86 9.6 24.3 0.00 0.00 0.00 86 1009.2
20260510022334 79 80 9.6 24.3 0.00 0.00 0.00 86 1009.1
20260510022233 79 86 10.4 24.3 0.00 0.00 0.00 86 1009.1
20260510022133 79 92 11.3 24.3 0.00 0.00 0.00 86 1009.1
20260510022033 80 99 13.0 24.3 0.00 0.00 0.00 86 1009.1
20260510021932 80 104 13.9 24.3 0.00 0.00 0.00 86 1009.1
20260510021832 80 111 13.0 24.3 0.00 0.00 0.00 86 1009.0
20260510021732 80 127 14.8 24.3 0.00 0.00 0.00 85 1009.0
20260510021633 80 107 15.6 24.3 0.00 0.00 0.00 85 1009.0
20260510021532 80 110 11.3 20.0 0.00 0.00 0.00 85 1008.9
20260510021432 80 114 10.4 20.0 0.00 0.00 0.00 85 1008.9
20260510021333 80 90 9.6 20.0 0.00 0.00 0.00 85 1008.9
20260510021233 81 114 10.4 20.0 0.00 0.00 0.00 85 1008.9
20260510021132 81 130 11.3 20.0 0.00 0.00 0.00 85 1008.9
20260510021032 81 103 12.2 20.0 0.00 0.00 0.00 84 1008.8
20260510020931 81 120 12.2 20.0 0.00 0.00 0.00 84 1008.8
20260510020832 81 107 12.2 18.2 0.00 0.00 0.00 84 1008.7
20260510020731 81 114 13.0 18.2 0.00 0.00 0.00 84 1008.8
20260510020630 81 123 12.2 18.2 0.00 0.00 0.00 83 1008.7
20260510020528 81 87 9.6 14.8 0.00 0.00 0.00 83 1008.7
20260510020425 81 120 8.7 14.8 0.00 0.00 0.00 83 1008.6
20260510020325 81 110 9.6 14.8 0.00 0.00 0.00 82 1008.5
20260510020225 81 137 10.4 14.8 0.00 0.00 0.00 82 1008.5
20260510020124 81 116 8.7 14.8 0.00 0.00 0.00 81 1008.4
20260510020025 81 128 8.7 14.8 0.00 0.00 0.00 81 1008.4
20260510015919 82 154 8.7 14.8 0.00 0.00 0.00 81 1008.3
20260510015816 82 118 8.7 14.8 0.00 0.00 0.00 80 1008.3
20260510015716 82 121 10.4 14.8 0.00 0.00 0.00 80 1008.2
20260510015615 82 94 9.6 14.8 0.00 0.00 0.00 79 1008.3
20260510015513 82 102 7.8 13.9 0.00 0.00 0.00 79 1008.2
20260510015411 82 89 7.8 13.9 0.00 0.00 0.00 78 1008.1
20260510015310 82 111 9.6 13.9 0.00 0.00 0.00 78 1008.2
20260510015208 82 97 9.6 13.0 0.00 0.00 0.00 77 1008.1
20260510015107 82 100 8.7 12.2 0.00 0.00 0.00 75 1008.1
20260510015007 82 102 5.2 10.4 0.00 0.00 0.00 74 1008.1
20260510014904 81 152 3.5 6.1 0.00 0.00 0.00 71 1008.1
20260510014802 81 71 2.6 6.1 0.00 0.00 0.00 69 1008.0
20260510014701 81 296 0.9 2.6 0.00 0.00 0.00 69 1007.8
20260510014602 81 296 0.9 2.6 0.00 0.00 0.00 69 1007.8
20260510014502 81 296 0.9 2.6 0.00 0.00 0.00 70 1007.8
20260510014403 81 296 1.7 2.6 0.00 0.00 0.00 70 1007.7
20260510014302 81 296 1.7 2.6 0.00 0.00 0.00 70 1007.7
20260510014204 81 295 1.7 2.6 0.00 0.00 0.00 70 1007.6
20260510014104 80 279 1.7 2.6 0.00 0.00 0.00 70 1007.7
20260510014000 80 279 1.7 1.7 0.00 0.00 0.00 71 1007.6
20260510013900 81 144 0.9 1.7 0.00 0.00 0.00 70 1007.7
20260510013758 81 144 0.9 1.7 0.00 0.00 0.00 70 1007.6
20260510013656 81 144 0.9 1.7 0.00 0.00 0.00 69 1007.5
20260510013556 81 144 0.0 1.7 0.00 0.00 0.00 69 1007.5
20260510013454 81 144 0.0 1.7 0.00 0.00 0.00 67 1007.4
20260510013353 81 144 0.0 1.7 0.00 0.00 0.00 67 1007.4
20260510013251 81 144 0.0 1.7 0.00 0.00 0.00 67 1007.3
20260510013149 81 144 0.0 2.6 0.00 0.00 0.00 67 1007.3
20260510013048 81 144 0.9 2.6 0.00 0.00 0.00 67 1007.3
20260510012946 81 144 0.0 2.6 0.00 0.00 0.00 66 1007.3
20260510012843 81 144 0.9 2.6 0.00 0.00 0.00 66 1007.3
20260510012742 81 65 0.9 2.6 0.00 0.00 0.00 66 1007.3
20260510012642 81 66 0.9 3.5 0.00 0.00 0.00 66 1007.2
20260510012540 81 66 0.9 3.5 0.00 0.00 0.00 66 1007.2
20260510012438 81 66 1.7 3.5 0.00 0.00 0.00 66 1007.1
20260510012334 82 66 1.7 3.5 0.00 0.00 0.00 66 1007.2
20260510012232 82 66 1.7 3.5 0.00 0.00 0.00 66 1007.1
20260510012134 82 68 1.7 3.5 0.00 0.00 0.00 65 1007.0
20260510012033 82 69 1.7 3.5 0.00 0.00 0.00 65 1007.1
20260510011932 82 69 1.7 3.5 0.00 0.00 0.00 65 1007.1
20260510011832 82 71 1.7 3.5 0.00 0.00 0.00 65 1007.1
20260510011733 82 56 0.9 3.5 0.00 0.00 0.00 65 1007.0
20260510011632 82 51 0.9 3.5 0.00 0.00 0.00 65 1007.0
20260510011533 82 103 0.9 3.5 0.00 0.00 0.00 65 1007.1
20260510011431 82 104 1.7 3.5 0.00 0.00 0.00 64 1007.0
20260510011332 82 106 1.7 3.5 0.00 0.00 0.00 63 1007.0
20260510011232 82 104 2.6 3.5 0.00 0.00 0.00 63 1006.9
20260510011132 82 103 2.6 3.5 0.00 0.00 0.00 63 1006.8
20260510011032 82 111 2.6 3.5 0.00 0.00 0.00 63 1006.9
20260510010931 82 107 2.6 3.5 0.00 0.00 0.00 63 1006.8
20260510010831 82 103 2.6 3.5 0.00 0.00 0.00 63 1006.7
20260510010730 82 103 2.6 3.5 0.00 0.00 0.00 63 1006.8
20260510010632 82 102 1.7 3.5 0.00 0.00 0.00 63 1006.7
20260510010532 82 102 1.7 5.2 0.00 0.00 0.00 63 1006.8
20260510010432 82 103 0.9 5.2 0.00 0.00 0.00 63 1006.8
20260510010331 82 103 1.7 5.2 0.00 0.00 0.00 63 1006.8
20260510010232 82 102 0.9 5.2 0.00 0.00 0.00 62 1006.8
20260510010131 82 102 0.9 5.2 0.00 0.00 0.00 62 1006.8
20260510010031 82 102 1.7 5.2 0.00 0.00 0.00 62 1006.9
20260510005933 82 138 1.7 5.2 0.00 0.00 0.00 62 1006.9
20260510005832 82 149 2.6 5.2 0.00 0.00 0.00 62 1006.9
20260510005731 82 161 3.5 5.2 0.00 0.00 0.00 62 1006.8
20260510005632 82 100 2.6 5.2 0.00 0.00 0.00 61 1006.8
20260510005531 82 86 1.7 5.2 0.00 0.00 0.00 61 1006.7
20260510005431 82 96 2.6 8.7 0.00 0.00 0.00 61 1006.6
20260510005332 82 120 3.5 8.7 0.00 0.00 0.00 61 1006.6
20260510005232 82 93 3.5 8.7 0.00 0.00 0.00 61 1006.6
20260510005131 82 103 2.6 8.7 0.00 0.00 0.00 61 1006.5
20260510005030 82 97 2.6 8.7 0.00 0.00 0.00 61 1006.5
20260510004928 82 137 2.6 8.7 0.00 0.00 0.00 61 1006.6
20260510004828 82 210 2.6 10.4 0.00 0.00 0.00 61 1006.5
20260510004725 82 97 3.5 10.4 0.00 0.00 0.00 61 1006.6
20260510004624 82 250 4.3 10.4 0.00 0.00 0.00 61 1006.7
20260510004522 82 128 4.3 10.4 0.00 0.00 0.00 62 1006.6
20260510004422 82 120 3.5 10.4 0.00 0.00 0.00 62 1006.6
20260510004319 82 141 3.5 10.4 0.00 0.00 0.00 63 1006.6
20260510004218 82 203 5.2 10.4 0.00 0.00 0.00 63 1006.6
20260510004117 82 164 5.2 10.4 0.00 0.00 0.00 63 1006.5
20260510004016 82 212 6.1 13.9 0.00 0.00 0.00 63 1006.4
20260510003908 83 173 6.1 13.9 0.00 0.00 0.00 64 1006.4
20260510003807 83 214 5.2 13.9 0.00 0.00 0.00 63 1006.4
20260510003706 83 173 5.2 13.9 0.00 0.00 0.00 63 1006.4
20260510003602 83 154 5.2 13.9 0.00 0.00 0.00 63 1006.4
20260510003502 83 207 5.2 13.9 0.00 0.00 0.00 63 1006.4
20260510003403 83 185 3.5 13.9 0.00 0.00 0.00 62 1006.4
20260510003303 84 128 3.5 13.9 0.00 0.00 0.00 62 1006.4
20260510003203 84 173 6.1 13.9 0.00 0.00 0.00 61 1006.4
20260510003103 84 161 7.0 13.9 0.00 0.00 0.00 61 1006.4
20260510003005 85 221 6.1 13.9 0.00 0.00 0.00 59 1006.5
20260510002903 85 141 5.2 13.9 0.00 0.00 0.00 57 1006.5
20260510002803 85 8 5.2 13.9 0.00 0.00 0.00 57 1006.6
20260510002702 85 161 5.2 14.8 0.00 0.00 0.00 56 1006.5
20260510002602 85 221 5.2 14.8 0.00 0.00 0.00 56 1006.6
20260510002502 85 206 4.3 14.8 0.00 0.00 0.00 56 1006.5
20260510002402 85 185 5.2 14.8 0.00 0.00 0.00 57 1006.6
20260510002306 85 203 6.1 14.8 0.00 0.00 0.00 57 1006.6
20260510002203 86 210 6.1 14.8 0.00 0.00 0.00 58 1006.6
20260510002103 86 192 6.1 14.8 0.00 0.00 0.00 59 1006.6
20260510002004 86 196 5.2 14.8 0.00 0.00 0.00 60 1006.6
20260510001903 86 200 7.0 14.8 0.00 0.00 0.00 61 1006.5
20260510001802 86 203 7.8 14.8 0.00 0.00 0.00 61 1006.5
20260510001701 86 254 7.0 13.0 0.00 0.00 0.00 64 1006.4
20260510001600 87 149 6.1 13.0 0.00 0.00 0.00 67 1006.3
20260510001459 87 196 4.3 8.7 0.00 0.00 0.00 69 1006.3
20260510001356 87 199 3.5 8.7 0.00 0.00 0.00 70 1006.3
20260510001255 87 188 3.5 8.7 0.00 0.00 0.00 69 1006.3
20260510001152 87 175 4.3 8.7 0.00 0.00 0.00 69 1006.3
20260510001050 87 111 4.3 8.7 0.00 0.00 0.00 69 1006.2
20260510000949 87 106 4.3 8.7 0.00 0.00 0.00 69 1006.2
20260510000847 87 104 4.3 8.7 0.00 0.00 0.00 69 1006.1
20260510000746 87 97 3.5 6.1 0.00 0.00 0.00 69 1006.1
20260510000645 87 127 3.5 6.1 0.00 0.00 0.00 70 1006.1
20260510000543 87 90 3.5 6.1 0.00 0.00 0.00 70 1006.1
20260510000441 87 83 3.5 6.1 0.00 0.00 0.00 70 1006.1
20260510000341 87 87 3.5 6.1 0.00 0.00 0.00 70 1006.2
20260510000241 87 86 2.6 6.1 0.00 0.00 0.00 70 1006.2
20260510000133 87 92 3.5 6.1 0.00 0.00 0.00 70 1006.2
20260510000035 87 89 3.5 6.1 0.00 0.00 0.00 70 1006.2
20260509235931 87 107 3.5 6.1 0.00 0.00 0.00 70 1006.2
20260509235832 87 96 3.5 6.1 0.00 0.00 0.00 70 1006.2
20260509235731 87 102 2.6 5.2 0.00 0.00 0.00 70 1006.1
20260509235631 87 73 1.7 5.2 0.00 0.00 0.00 70 1006.1
20260509235532 87 71 2.6 5.2 0.00 0.00 0.00 70 1006.0
20260509235431 87 71 3.5 5.2 0.00 0.00 0.00 70 1006.0
20260509235331 87 63 3.5 5.2 0.00 0.00 0.00 70 1006.0
20260509235231 87 66 4.3 5.2 0.00 0.00 0.00 70 1006.0
20260509235131 87 80 3.5 6.1 0.00 0.00 0.00 70 1006.0
20260509235031 87 62 3.5 6.1 0.00 0.00 0.00 70 1006.1
20260509234932 87 49 3.5 6.1 0.00 0.00 0.00 70 1006.2
20260509234832 87 65 2.6 6.1 0.00 0.00 0.00 69 1006.2
20260509234731 87 79 2.6 6.1 0.00 0.00 0.00 69 1006.2
20260509234631 87 47 2.6 6.1 0.00 0.00 0.00 69 1006.1
20260509234531 87 44 2.6 6.1 0.00 0.00 0.00 69 1006.0
20260509234431 87 42 2.6 6.1 0.00 0.00 0.00 69 1006.0
20260509234331 87 87 3.5 6.1 0.00 0.00 0.00 68 1005.9
20260509234231 87 87 4.3 6.1 0.00 0.00 0.00 68 1005.9
20260509234132 87 92 4.3 6.1 0.00 0.00 0.00 68 1005.8
20260509234031 87 85 3.5 6.1 0.00 0.00 0.00 69 1005.8
20260509233932 87 66 3.5 6.1 0.00 0.00 0.00 69 1005.8
20260509233832 87 66 3.5 6.1 0.00 0.00 0.00 69 1005.8
20260509233731 87 75 3.5 6.1 0.00 0.00 0.00 69 1005.8
20260509233631 87 72 3.5 6.1 0.00 0.00 0.00 69 1005.8
20260509233531 87 56 2.6 5.2 0.00 0.00 0.00 69 1005.9
20260509233432 87 39 2.6 5.2 0.00 0.00 0.00 69 1005.8
20260509233332 87 61 3.5 5.2 0.00 0.00 0.00 69 1006.0
20260509233231 87 69 3.5 5.2 0.00 0.00 0.00 69 1006.0
20260509233131 87 55 2.6 5.2 0.00 0.00 0.00 69 1006.0
20260509233031 87 54 2.6 5.2 0.00 0.00 0.00 70 1006.0
20260509232931 87 52 2.6 5.2 0.00 0.00 0.00 69 1006.0
20260509232831 87 52 2.6 5.2 0.00 0.00 0.00 69 1006.1
20260509232731 87 51 3.5 5.2 0.00 0.00 0.00 69 1006.1
20260509232631 87 48 3.5 5.2 0.00 0.00 0.00 69 1005.9
20260509232531 87 55 3.5 5.2 0.00 0.00 0.00 68 1006.1
20260509232432 87 39 3.5 4.3 0.00 0.00 0.00 68 1006.1
20260509232332 88 39 2.6 4.3 0.00 0.00 0.00 68 1006.1
20260509232230 88 51 2.6 5.2 0.00 0.00 0.00 67 1006.1
20260509232131 88 51 2.6 5.2 0.00 0.00 0.00 67 1006.1
20260509232032 88 51 2.6 5.2 0.00 0.00 0.00 67 1006.0
20260509231931 88 56 2.6 5.2 0.00 0.00 0.00 66 1006.0
20260509231830 88 54 2.6 5.2 0.00 0.00 0.00 66 1006.0
20260509231731 88 55 2.6 5.2 0.00 0.00 0.00 64 1006.0
20260509231631 89 63 2.6 5.2 0.00 0.00 0.00 65 1006.1
20260509231531 89 62 3.5 5.2 0.00 0.00 0.00 65 1006.1
20260509231434 89 63 4.3 5.2 0.00 0.00 0.00 65 1006.1
20260509231332 89 87 3.5 5.2 0.00 0.00 0.00 65 1006.1
20260509231232 89 54 2.6 4.3 0.00 0.00 0.00 65 1006.1
20260509231131 89 78 1.7 4.3 0.00 0.00 0.00 65 1006.1
20260509231032 89 69 2.6 4.3 0.00 0.00 0.00 65 1006.1
20260509230931 89 94 3.5 4.3 0.00 0.00 0.00 65 1006.1
20260509230832 89 76 2.6 4.3 0.00 0.00 0.00 65 1006.1
20260509230733 89 76 3.5 4.3 0.00 0.00 0.00 65 1006.0
20260509230632 89 75 3.5 4.3 0.00 0.00 0.00 64 1006.0
20260509230532 89 80 2.6 4.3 0.00 0.00 0.00 63 1006.0
20260509230432 89 80 3.5 4.3 0.00 0.00 0.00 63 1006.0
20260509230331 89 69 3.5 4.3 0.00 0.00 0.00 63 1005.9
20260509230231 89 86 3.5 4.3 0.00 0.00 0.00 63 1005.9
20260509230131 89 89 2.6 4.3 0.00 0.00 0.00 62 1005.9
20260509230032 89 107 2.6 4.3 0.00 0.00 0.00 62 1006.0
20260509225931 89 96 3.5 4.3 0.00 0.00 0.00 63 1005.8
20260509225832 89 121 3.5 4.3 0.00 0.00 0.00 62 1005.9
20260509225731 90 116 2.6 4.3 0.00 0.00 0.00 63 1005.8
20260509225631 90 96 1.7 4.3 0.00 0.00 0.00 62 1005.8
20260509225531 90 125 1.7 3.5 0.00 0.00 0.00 63 1005.9
20260509225431 89 118 1.7 3.5 0.00 0.00 0.00 63 1005.8
20260509225332 89 149 1.7 3.5 0.00 0.00 0.00 62 1005.9
20260509225231 89 110 0.9 2.6 0.00 0.00 0.00 62 1005.9
20260509225131 90 110 0.0 0.9 0.00 0.00 0.00 62 1005.9
20260509225032 90 104 0.0 0.9 0.00 0.00 0.00 63 1005.9
20260509224931 89 213 0.0 0.9 0.00 0.00 0.00 62 1005.9
20260509224831 89 147 0.0 0.9 0.00 0.00 0.00 63 1005.9
20260509224730 89 147 0.0 0.9 0.00 0.00 0.00 62 1005.9
20260509224632 89 173 0.0 1.7 0.00 0.00 0.00 62 1005.8
20260509224531 89 124 0.0 3.5 0.00 0.00 0.00 62 1005.9
20260509224431 89 124 0.0 3.5 0.00 0.00 0.00 62 1005.9
20260509224331 89 165 0.0 3.5 0.00 0.00 0.00 61 1005.9
20260509224231 89 154 0.0 3.5 0.00 0.00 0.00 62 1005.9
20260509224131 89 137 0.0 3.5 0.00 0.00 0.00 61 1005.9
20260509224032 89 123 0.0 3.5 0.00 0.00 0.00 61 1005.9
20260509223933 89 123 0.0 3.5 0.00 0.00 0.00 61 1005.9
20260509223832 90 120 0.9 3.5 0.00 0.00 0.00 62 1005.8
20260509223732 90 109 1.7 3.5 0.00 0.00 0.00 61 1005.8
20260509223633 90 109 1.7 3.5 0.00 0.00 0.00 62 1005.9
20260509223531 90 87 0.9 3.5 0.00 0.00 0.00 61 1005.9
20260509223431 90 10 0.9 1.7 0.00 0.00 0.00 60 1005.8
20260509223329 90 10 0.0 1.7 0.00 0.00 0.00 61 1005.8
20260509223228 90 10 0.0 1.7 0.00 0.00 0.00 61 1005.8
20260509223130 90 10 0.0 1.7 0.00 0.00 0.00 61 1005.8
20260509223028 90 10 0.9 1.7 0.00 0.01 0.00 60 1005.8
20260509222927 90 10 0.9 1.7 0.00 0.01 0.00 60 1005.8
20260509222827 90 10 0.9 1.7 0.00 0.01 0.00 60 1005.8
20260509222727 90 10 0.9 1.7 0.00 0.01 0.00 61 1005.8
20260509222629 90 10 0.9 1.7 0.00 0.01 0.00 60 1005.8
20260509222529 90 10 0.9 2.6 0.00 0.01 0.00 60 1005.8
20260509222427 91 10 0.0 2.6 0.00 0.01 0.00 60 1005.9
20260509222328 91 10 0.0 2.6 0.00 0.01 0.00 60 1005.8
20260509222227 91 10 0.0 3.5 0.00 0.01 0.00 60 1005.8
20260509222127 90 10 0.9 3.5 0.00 0.01 0.00 59 1005.8
20260509222028 91 10 0.0 3.5 0.00 0.01 0.00 59 1005.7
20260509221929 91 10 0.0 3.5 0.00 0.01 0.00 58 1005.7
20260509221827 91 10 0.9 3.5 0.00 0.01 0.00 58 1005.7
20260509221727 92 10 0.9 3.5 0.00 0.01 0.00 58 1005.7
20260509221628 92 10 0.9 5.2 0.00 0.01 0.00 58 1005.6
20260509221527 91 10 0.9 5.2 0.00 0.01 0.00 59 1005.7
20260509221427 91 10 1.7 5.2 0.00 0.01 0.00 58 1005.6
20260509221328 91 10 1.7 5.2 0.00 0.01 0.00 59 1005.7
20260509221227 91 11 0.9 5.2 0.00 0.01 0.00 59 1005.7
20260509221128 91 38 1.7 5.2 0.00 0.01 0.00 59 1005.7
20260509221028 91 38 1.7 5.2 0.00 0.01 0.00 59 1005.7
20260509220928 90 49 1.7 5.2 0.00 0.01 0.00 60 1005.7
20260509220828 91 49 3.5 5.2 0.00 0.01 0.00 59 1005.7
20260509220727 91 85 3.5 5.2 0.00 0.01 0.00 59 1005.7
20260509220630 91 52 1.7 4.3 0.00 0.01 0.00 59 1005.6
20260509220527 91 61 1.7 4.3 0.00 0.01 0.00 59 1005.7
20260509220428 91 61 0.9 4.3 0.00 0.01 0.00 59 1005.7
20260509220328 91 61 1.7 4.3 0.00 0.01 0.00 60 1005.7
20260509220227 91 59 2.6 4.3 0.00 0.01 0.00 59 1005.7
20260509220126 91 59 2.6 4.3 0.00 0.01 0.00 59 1005.7
20260509220027 91 79 1.7 3.5 0.00 0.01 0.00 58 1005.7
20260509215929 91 80 2.6 4.3 0.00 0.01 0.00 58 1005.7
20260509215827 92 83 1.7 4.3 0.00 0.01 0.00 58 1005.7
20260509215727 92 42 0.9 4.3 0.00 0.01 0.00 58 1005.7
20260509215628 91 42 0.9 4.3 0.00 0.01 0.00 59 1005.6
20260509215528 90 42 0.9 4.3 0.00 0.01 0.00 59 1005.6
20260509215427 91 92 1.7 4.3 0.00 0.01 0.00 58 1005.6
20260509215326 91 92 2.6 4.3 0.00 0.01 0.00 59 1005.6
20260509215229 91 59 2.6 4.3 0.00 0.01 0.00 58 1005.6
20260509215127 91 47 1.7 4.3 0.00 0.01 0.00 58 1005.7
20260509215027 91 39 2.6 4.3 0.00 0.01 0.00 58 1005.7